Time,TemperatureF,DewpointF,PressureIn,WindDirection,WindDirectionDegrees,WindSpeedMPH,WindSpeedGustMPH,Humidity,HourlyPrecipIn,Conditions,Clouds,dailyrainin,SoftwareType,DateUTC
2013-04-29 00:00:00,46.9,44.6,29.94,SSE,157,0.0,1.1,92,0.00,,,0.00,WUHU21636XXSP,2013-04-29 07:00:00,
2013-04-29 00:01:00,46.9,44.6,29.94,SSE,157,0.0,1.1,92,0.00,,,0.00,WUHU21636XXSP,2013-04-29 07:01:00,
2013-04-29 00:02:00,46.9,44.6,29.94,SSW,202,0.0,0.0,92,0.00,,,0.00,WUHU21636XXSP,2013-04-29 07:02:00,
2013-04-29 00:05:00,46.9,44.6,29.94,SE,135,0.0,0.0,92,0.00,,,0.00,WUHU21636XXSP,2013-04-29 07:05:00,
2013-04-29 00:06:00,46.9,44.6,29.94,SE,135,0.0,0.0,92,0.00,,,0.00,WUHU21636XXSP,2013-04-29 07:06:00,
2013-04-29 00:07:00,46.9,44.6,29.94,SSW,202,0.0,0.0,92,0.00,,,0.00,WUHU21636XXSP,2013-04-29 07:07:00,
2013-04-29 00:10:00,47.1,44.8,29.94,South,180,0.0,0.0,92,0.00,,,0.00,WUHU21636XXSP,2013-04-29 07:10:00,
2013-04-29 00:11:00,47.1,44.8,29.94,SE,135,0.0,0.0,92,0.00,,,0.00,WUHU21636XXSP,2013-04-29 07:11:00,
2013-04-29 00:13:00,47.1,44.8,29.94,SE,135,0.0,0.0,92,0.00,,,0.00,WUHU21636XXSP,2013-04-29 07:13:00,
2013-04-29 00:15:00,46.9,44.6,29.94,ESE,120,2.1,2.4,92,0.00,,,0.00,WUHU21636XXSP,2013-04-29 07:15:00,
2013-04-29 00:16:00,46.9,44.6,29.94,South,174,1.5,2.4,92,0.00,,,0.00,WUHU21636XXSP,2013-04-29 07:16:00,
2013-04-29 00:17:00,46.9,44.6,29.94,SSW,204,1.3,2.4,92,0.00,,,0.00,WUHU21636XXSP,2013-04-29 07:17:00,
2013-04-29 00:18:00,46.9,44.6,29.94,SW,225,1.1,2.4,92,0.00,,,0.00,WUHU21636XXSP,2013-04-29 07:18:00,
2013-04-29 00:21:00,46.9,44.6,29.93,South,180,0.0,2.4,92,0.00,,,0.00,WUHU21636XXSP,2013-04-29 07:21:00,
2013-04-29 00:22:00,46.9,44.6,29.93,SSE,157,0.0,2.4,92,0.00,,,0.00,WUHU21636XXSP,2013-04-29 07:22:00,
2013-04-29 00:23:00,46.9,44.6,29.93,SSE,157,0.0,2.4,92,0.00,,,0.00,WUHU21636XXSP,2013-04-29 07:23:00,
2013-04-29 00:24:00,46.9,44.6,29.93,South,180,0.0,2.4,92,0.00,,,0.00,WUHU21636XXSP,2013-04-29 07:24:00,
2013-04-29 00:26:00,46.9,44.6,29.93,South,180,0.0,1.1,92,0.00,,,0.00,WUHU21636XXSP,2013-04-29 07:26:00,
2013-04-29 00:27:00,46.9,44.6,29.93,SE,135,2.0,2.0,92,0.00,,,0.00,WUHU21636XXSP,2013-04-29 07:27:00,
2013-04-29 00:29:00,46.9,44.6,29.93,SE,135,2.0,2.0,92,0.00,,,0.00,WUHU21636XXSP,2013-04-29 07:29:00,
2013-04-29 00:31:00,46.9,44.6,29.93,South,180,0.0,2.0,92,0.00,,,0.00,WUHU21636XXSP,2013-04-29 07:31:00,
2013-04-29 00:32:00,46.9,44.6,29.93,South,180,0.0,2.0,92,0.00,,,0.00,WUHU21636XXSP,2013-04-29 07:32:00,
2013-04-29 00:34:00,46.9,44.6,29.93,SSE,157,0.0,2.0,92,0.00,,,0.00,WUHU21636XXSP,2013-04-29 07:34:00,
2013-04-29 00:36:00,47.1,44.8,29.93,South,180,0.0,2.0,92,0.00,,,0.00,WUHU21636XXSP,2013-04-29 07:36:00,
2013-04-29 00:37:00,47.1,44.8,29.93,South,180,0.0,2.0,92,0.00,,,0.00,WUHU21636XXSP,2013-04-29 07:37:00,
2013-04-29 00:39:00,47.1,44.8,29.93,South,180,0.0,0.0,92,0.00,,,0.00,WUHU21636XXSP,2013-04-29 07:39:00,
2013-04-29 00:41:00,47.1,44.8,29.92,SSE,157,0.0,0.0,92,0.00,,,0.00,WUHU21636XXSP,2013-04-29 07:41:00,
2013-04-29 00:42:00,47.1,44.8,29.92,SSE,157,0.0,0.0,92,0.00,,,0.00,WUHU21636XXSP,2013-04-29 07:42:00,
2013-04-29 00:44:00,47.1,44.8,29.92,SSE,157,0.0,0.0,92,0.00,,,0.00,WUHU21636XXSP,2013-04-29 07:44:00,
2013-04-29 00:46:00,47.1,44.8,29.92,SE,135,0.0,0.0,92,0.00,,,0.00,WUHU21636XXSP,2013-04-29 07:46:00,
2013-04-29 00:47:00,47.1,44.8,29.92,SE,135,0.0,0.0,92,0.00,,,0.00,WUHU21636XXSP,2013-04-29 07:47:00,
2013-04-29 00:49:00,47.1,44.8,29.92,SE,135,0.0,0.0,92,0.00,,,0.00,WUHU21636XXSP,2013-04-29 07:49:00,
2013-04-29 00:52:00,46.9,44.6,29.92,SE,135,0.0,0.0,92,0.00,,,0.00,WUHU21636XXSP,2013-04-29 07:52:00,
2013-04-29 00:53:00,46.9,44.6,29.92,SE,135,0.0,0.0,92,0.00,,,0.00,WUHU21636XXSP,2013-04-29 07:53:00,
2013-04-29 00:54:00,46.9,44.6,29.92,SE,135,0.0,0.0,92,0.00,,,0.00,WUHU21636XXSP,2013-04-29 07:54:00,
2013-04-29 00:57:00,46.9,44.6,29.92,SE,135,0.0,0.0,92,0.00,,,0.00,WUHU21636XXSP,2013-04-29 07:57:00,
2013-04-29 00:58:00,46.9,44.6,29.92,SE,135,0.0,0.0,92,0.00,,,0.00,WUHU21636XXSP,2013-04-29 07:58:00,
2013-04-29 00:59:00,46.9,44.6,29.92,SSE,157,0.0,0.0,92,0.00,,,0.00,WUHU21636XXSP,2013-04-29 07:59:00,
2013-04-29 01:02:00,46.8,44.5,29.92,SSE,157,0.0,0.0,92,0.00,,,0.00,WUHU21636XXSP,2013-04-29 08:02:00,
2013-04-29 01:03:00,46.8,44.5,29.92,SSE,157,0.0,0.0,92,0.00,,,0.00,WUHU21636XXSP,2013-04-29 08:03:00,
2013-04-29 01:04:00,46.8,44.5,29.92,SSE,157,0.0,0.0,92,0.00,,,0.00,WUHU21636XXSP,2013-04-29 08:04:00,
2013-04-29 01:08:00,46.8,44.5,29.92,SSE,157,0.0,0.0,92,0.00,,,0.00,WUHU21636XXSP,2013-04-29 08:08:00,
2013-04-29 01:09:00,46.8,44.5,29.92,SSE,157,0.0,0.0,92,0.00,,,0.00,WUHU21636XXSP,2013-04-29 08:09:00,
2013-04-29 01:13:00,46.8,44.5,29.93,ESE,112,0.0,0.0,92,0.00,,,0.00,WUHU21636XXSP,2013-04-29 08:13:00,
2013-04-29 01:15:00,46.8,44.8,29.93,ESE,112,0.0,0.0,93,0.00,,,0.00,WUHU21636XXSP,2013-04-29 08:15:00,
2013-04-29 01:18:00,46.9,44.9,29.94,ESE,112,0.0,0.0,93,0.00,,,0.00,WUHU21636XXSP,2013-04-29 08:18:00,
2013-04-29 01:19:00,46.9,44.9,29.94,ESE,112,0.0,0.0,93,0.00,,,0.00,WUHU21636XXSP,2013-04-29 08:19:00,
2013-04-29 01:20:00,46.9,44.9,29.94,ESE,112,0.0,0.0,93,0.00,,,0.00,WUHU21636XXSP,2013-04-29 08:20:00,
2013-04-29 01:23:00,46.9,44.9,29.94,ESE,112,0.0,0.0,93,0.00,,,0.00,WUHU21636XXSP,2013-04-29 08:23:00,
2013-04-29 01:24:00,46.9,44.9,29.94,ESE,112,0.0,0.0,93,0.00,,,0.00,WUHU21636XXSP,2013-04-29 08:24:00,
2013-04-29 01:25:00,46.9,44.9,29.95,ESE,112,0.0,0.0,93,0.00,,,0.00,WUHU21636XXSP,2013-04-29 08:25:00,
2013-04-29 01:26:00,46.9,44.9,29.95,ESE,112,0.0,0.0,93,0.00,,,0.00,WUHU21636XXSP,2013-04-29 08:26:00,
2013-04-29 01:28:00,46.9,44.9,29.95,ESE,112,0.0,0.0,93,0.00,,,0.00,WUHU21636XXSP,2013-04-29 08:28:00,
2013-04-29 01:29:00,46.9,44.9,29.95,ESE,112,0.0,0.0,93,0.00,,,0.00,WUHU21636XXSP,2013-04-29 08:29:00,
2013-04-29 01:30:00,46.9,44.9,29.95,ESE,112,0.0,0.0,93,0.00,,,0.00,WUHU21636XXSP,2013-04-29 08:30:00,
2013-04-29 01:31:00,46.9,44.9,29.95,ESE,112,0.0,0.0,93,0.00,,,0.00,WUHU21636XXSP,2013-04-29 08:31:00,
2013-04-29 01:34:00,47.1,45.1,29.95,ESE,112,0.0,0.0,93,0.00,,,0.00,WUHU21636XXSP,2013-04-29 08:34:00,
2013-04-29 01:35:00,47.1,45.1,29.95,ESE,112,0.0,0.0,93,0.00,,,0.00,WUHU21636XXSP,2013-04-29 08:35:00,
2013-04-29 01:36:00,47.1,45.1,29.95,ESE,112,0.0,0.0,93,0.00,,,0.00,WUHU21636XXSP,2013-04-29 08:36:00,
2013-04-29 01:39:00,47.1,45.1,29.95,ESE,112,0.0,0.0,93,0.00,,,0.00,WUHU21636XXSP,2013-04-29 08:39:00,
2013-04-29 01:40:00,47.1,45.1,29.95,ESE,112,0.0,0.0,93,0.00,,,0.00,WUHU21636XXSP,2013-04-29 08:40:00,
2013-04-29 01:41:00,47.1,45.1,29.95,ESE,112,0.0,0.0,93,0.00,,,0.00,WUHU21636XXSP,2013-04-29 08:41:00,
2013-04-29 01:44:00,47.1,45.1,29.95,North,0,0.0,0.0,93,0.00,,,0.00,WUHU21636XXSP,2013-04-29 08:44:00,
2013-04-29 01:45:00,47.1,45.1,29.95,North,0,0.0,0.0,93,0.00,,,0.00,WUHU21636XXSP,2013-04-29 08:45:00,
2013-04-29 01:46:00,46.9,44.6,29.95,North,0,0.0,0.0,92,0.00,,,0.00,WUHU21636XXSP,2013-04-29 08:46:00,
2013-04-29 01:49:00,46.9,44.6,29.95,NNE,22,0.0,0.0,92,0.00,,,0.00,WUHU21636XXSP,2013-04-29 08:49:00,
2013-04-29 01:50:00,46.9,44.6,29.95,NE,45,0.0,0.0,92,0.00,,,0.00,WUHU21636XXSP,2013-04-29 08:50:00,
2013-04-29 01:51:00,46.9,44.6,29.95,NE,45,0.0,0.0,92,0.00,,,0.00,WUHU21636XXSP,2013-04-29 08:51:00,
2013-04-29 01:52:00,46.9,44.6,29.95,NNW,337,0.0,0.0,92,0.00,,,0.00,WUHU21636XXSP,2013-04-29 08:52:00,
2013-04-29 01:54:00,46.9,44.6,29.95,NNW,337,0.0,0.0,92,0.00,,,0.00,WUHU21636XXSP,2013-04-29 08:54:00,
2013-04-29 01:55:00,46.9,44.6,29.95,NNW,337,0.0,0.0,92,0.00,,,0.00,WUHU21636XXSP,2013-04-29 08:55:00,
2013-04-29 01:56:00,46.9,44.6,29.95,NNW,337,0.0,0.0,92,0.00,,,0.00,WUHU21636XXSP,2013-04-29 08:56:00,
2013-04-29 01:57:00,46.8,44.5,29.95,North,0,0.0,0.0,92,0.00,,,0.00,WUHU21636XXSP,2013-04-29 08:57:00,
2013-04-29 01:59:00,46.6,44.0,29.95,North,0,0.0,0.0,91,0.00,,,0.00,WUHU21636XXSP,2013-04-29 08:59:00,
2013-04-29 02:00:00,46.6,44.0,29.95,North,0,0.0,0.0,91,0.00,,,0.00,WUHU21636XXSP,2013-04-29 09:00:00,
2013-04-29 02:01:00,46.6,44.0,29.95,North,0,0.0,0.0,91,0.00,,,0.00,WUHU21636XXSP,2013-04-29 09:01:00,
2013-04-29 02:02:00,46.4,43.8,29.95,East,90,0.0,0.0,91,0.00,,,0.00,WUHU21636XXSP,2013-04-29 09:02:00,
2013-04-29 02:05:00,46.2,43.6,29.95,North,0,0.0,0.0,91,0.00,,,0.00,WUHU21636XXSP,2013-04-29 09:05:00,
2013-04-29 02:06:00,46.2,43.6,29.95,North,0,0.0,0.0,91,0.00,,,0.00,WUHU21636XXSP,2013-04-29 09:06:00,
2013-04-29 02:07:00,46.2,43.6,29.95,North,0,0.0,0.0,91,0.00,,,0.00,WUHU21636XXSP,2013-04-29 09:07:00,
2013-04-29 02:10:00,46.0,43.4,29.95,North,0,1.1,1.1,91,0.00,,,0.00,WUHU21636XXSP,2013-04-29 09:10:00,
2013-04-29 02:11:00,46.0,43.4,29.96,North,0,1.1,1.1,91,0.00,,,0.00,WUHU21636XXSP,2013-04-29 09:11:00,
2013-04-29 02:12:00,46.0,43.4,29.96,North,0,1.1,1.1,91,0.00,,,0.00,WUHU21636XXSP,2013-04-29 09:12:00,
2013-04-29 02:13:00,46.0,43.4,29.96,North,0,1.1,1.1,91,0.00,,,0.00,WUHU21636XXSP,2013-04-29 09:13:00,
2013-04-29 02:15:00,46.0,43.4,29.95,NNW,337,0.0,1.1,91,0.00,,,0.00,WUHU21636XXSP,2013-04-29 09:15:00,
2013-04-29 02:16:00,46.0,43.4,29.95,NNW,337,0.0,1.1,91,0.00,,,0.00,WUHU21636XXSP,2013-04-29 09:16:00,
2013-04-29 02:17:00,46.0,43.4,29.96,NNE,22,0.0,1.1,91,0.00,,,0.00,WUHU21636XXSP,2013-04-29 09:17:00,
2013-04-29 02:18:00,46.0,43.4,29.95,North,0,0.0,1.1,91,0.00,,,0.00,WUHU21636XXSP,2013-04-29 09:18:00,
2013-04-29 02:20:00,45.9,43.3,29.95,North,0,0.0,1.1,91,0.00,,,0.00,WUHU21636XXSP,2013-04-29 09:20:00,
2013-04-29 02:21:00,45.9,43.3,29.95,North,0,0.0,1.1,91,0.00,,,0.00,WUHU21636XXSP,2013-04-29 09:21:00,
2013-04-29 02:22:00,45.9,43.3,29.95,North,0,0.0,0.0,91,0.00,,,0.00,WUHU21636XXSP,2013-04-29 09:22:00,
2013-04-29 02:23:00,45.9,43.3,29.95,ENE,67,0.0,0.0,91,0.00,,,0.00,WUHU21636XXSP,2013-04-29 09:23:00,
2013-04-29 02:25:00,45.7,43.1,29.95,NNE,22,0.0,0.0,91,0.00,,,0.00,WUHU21636XXSP,2013-04-29 09:25:00,
2013-04-29 02:26:00,45.7,43.1,29.95,NNE,22,0.0,0.0,91,0.00,,,0.00,WUHU21636XXSP,2013-04-29 09:26:00,
2013-04-29 02:27:00,45.7,43.1,29.95,ESE,112,0.0,0.0,91,0.00,,,0.00,WUHU21636XXSP,2013-04-29 09:27:00,
2013-04-29 02:28:00,45.7,43.1,29.95,ESE,112,0.0,0.0,91,0.00,,,0.00,WUHU21636XXSP,2013-04-29 09:28:00,
2013-04-29 02:31:00,45.7,43.1,29.95,North,0,0.0,0.0,91,0.00,,,0.00,WUHU21636XXSP,2013-04-29 09:31:00,
2013-04-29 02:32:00,45.5,42.9,29.95,ESE,112,0.0,0.0,91,0.00,,,0.00,WUHU21636XXSP,2013-04-29 09:32:00,
2013-04-29 02:33:00,45.5,42.6,29.95,North,0,2.9,2.9,90,0.00,,,0.00,WUHU21636XXSP,2013-04-29 09:33:00,
2013-04-29 02:36:00,45.5,42.6,29.96,North,1,2.4,2.9,90,0.00,,,0.00,WUHU21636XXSP,2013-04-29 09:36:00,
2013-04-29 02:37:00,45.5,42.6,29.95,NNE,22,0.6,2.9,90,0.00,,,0.00,WUHU21636XXSP,2013-04-29 09:37:00,
2013-04-29 02:38:00,45.3,42.4,29.95,NNE,22,0.6,2.9,90,0.00,,,0.00,WUHU21636XXSP,2013-04-29 09:38:00,
2013-04-29 02:41:00,45.3,42.4,29.95,SE,135,0.0,2.9,90,0.00,,,0.00,WUHU21636XXSP,2013-04-29 09:41:00,
2013-04-29 02:42:00,45.3,42.4,29.95,NNE,22,0.0,2.9,90,0.00,,,0.00,WUHU21636XXSP,2013-04-29 09:42:00,
2013-04-29 02:43:00,45.3,42.4,29.95,NNE,22,0.0,2.9,90,0.00,,,0.00,WUHU21636XXSP,2013-04-29 09:43:00,
2013-04-29 02:44:00,45.1,42.2,29.95,NNE,22,0.0,2.9,90,0.00,,,0.00,WUHU21636XXSP,2013-04-29 09:44:00,
2013-04-29 02:46:00,45.1,42.2,29.95,NNE,22,0.0,0.6,90,0.00,,,0.00,WUHU21636XXSP,2013-04-29 09:46:00,
2013-04-29 02:47:00,45.1,42.2,29.96,NNE,22,0.0,0.0,90,0.00,,,0.00,WUHU21636XXSP,2013-04-29 09:47:00,
2013-04-29 02:48:00,45.1,42.2,29.96,NNE,22,0.0,0.0,90,0.00,,,0.00,WUHU21636XXSP,2013-04-29 09:48:00,
2013-04-29 02:49:00,45.0,42.1,29.96,NNE,22,0.0,0.0,90,0.00,,,0.00,WUHU21636XXSP,2013-04-29 09:49:00,
2013-04-29 02:51:00,45.0,42.1,29.95,NNE,22,0.0,0.0,90,0.00,,,0.00,WUHU21636XXSP,2013-04-29 09:51:00,
2013-04-29 02:52:00,45.0,42.1,29.95,NNE,22,0.0,0.0,90,0.00,,,0.00,WUHU21636XXSP,2013-04-29 09:52:00,
2013-04-29 02:53:00,45.0,42.1,29.96,North,0,5.3,6.4,90,0.00,,,0.00,WUHU21636XXSP,2013-04-29 09:53:00,
2013-04-29 02:54:00,45.0,42.1,29.96,North,0,2.9,6.4,90,0.00,,,0.00,WUHU21636XXSP,2013-04-29 09:54:00,
2013-04-29 02:57:00,44.8,41.9,29.96,North,0,2.0,6.4,90,0.00,,,0.00,WUHU21636XXSP,2013-04-29 09:57:00,
2013-04-29 02:58:00,44.8,41.9,29.96,NE,45,0.0,6.4,90,0.00,,,0.00,WUHU21636XXSP,2013-04-29 09:58:00,
2013-04-29 03:00:00,44.8,42.2,29.96,NNE,22,0.0,6.4,91,0.00,,,0.00,WUHU21636XXSP,2013-04-29 10:00:00,
2013-04-29 03:02:00,44.6,42.0,29.96,NNE,22,0.0,6.4,91,0.00,,,0.00,WUHU21636XXSP,2013-04-29 10:02:00,
2013-04-29 03:03:00,44.6,42.0,29.96,NNE,22,0.0,5.3,91,0.00,,,0.00,WUHU21636XXSP,2013-04-29 10:03:00,
2013-04-29 03:05:00,44.4,41.5,29.96,NNE,22,0.0,2.0,90,0.00,,,0.00,WUHU21636XXSP,2013-04-29 10:05:00,
2013-04-29 03:07:00,44.4,41.5,29.96,NNE,22,0.0,0.0,90,0.00,,,0.00,WUHU21636XXSP,2013-04-29 10:07:00,
2013-04-29 03:08:00,44.4,41.5,29.96,NNE,22,0.0,0.0,90,0.00,,,0.00,WUHU21636XXSP,2013-04-29 10:08:00,
2013-04-29 03:10:00,44.4,41.5,29.96,NNE,22,0.0,0.0,90,0.00,,,0.00,WUHU21636XXSP,2013-04-29 10:10:00,
2013-04-29 03:12:00,44.2,41.3,29.96,NNE,22,0.0,0.0,90,0.00,,,0.00,WUHU21636XXSP,2013-04-29 10:12:00,
2013-04-29 03:13:00,44.2,41.3,29.96,NNE,22,0.0,0.0,90,0.00,,,0.00,WUHU21636XXSP,2013-04-29 10:13:00,
2013-04-29 03:15:00,43.9,41.3,29.96,NNE,22,0.0,0.0,91,0.00,,,0.00,WUHU21636XXSP,2013-04-29 10:15:00,
2013-04-29 03:17:00,43.9,41.3,29.96,NNE,22,0.0,0.0,91,0.00,,,0.00,WUHU21636XXSP,2013-04-29 10:17:00,
2013-04-29 03:18:00,43.9,41.3,29.96,NNE,22,0.0,0.0,91,0.00,,,0.00,WUHU21636XXSP,2013-04-29 10:18:00,
2013-04-29 03:20:00,43.9,41.3,29.96,NNE,22,0.0,0.0,91,0.00,,,0.00,WUHU21636XXSP,2013-04-29 10:20:00,
2013-04-29 03:22:00,43.7,41.1,29.96,NNE,22,0.0,0.0,91,0.00,,,0.00,WUHU21636XXSP,2013-04-29 10:22:00,
2013-04-29 03:23:00,43.7,41.1,29.96,NNE,22,0.0,0.0,91,0.00,,,0.00,WUHU21636XXSP,2013-04-29 10:23:00,
2013-04-29 03:25:00,43.7,41.1,29.97,NNE,22,0.0,0.0,91,0.00,,,0.00,WUHU21636XXSP,2013-04-29 10:25:00,
2013-04-29 03:27:00,43.7,41.1,29.97,NNE,22,0.0,0.0,91,0.00,,,0.00,WUHU21636XXSP,2013-04-29 10:27:00,
2013-04-29 03:28:00,43.5,40.9,29.96,NNE,22,0.0,0.0,91,0.00,,,0.00,WUHU21636XXSP,2013-04-29 10:28:00,
2013-04-29 03:29:00,43.5,40.9,29.96,NNE,22,0.0,0.0,91,0.00,,,0.00,WUHU21636XXSP,2013-04-29 10:29:00,
2013-04-29 03:30:00,43.5,40.9,29.97,NNE,22,0.0,0.0,91,0.00,,,0.00,WUHU21636XXSP,2013-04-29 10:30:00,
2013-04-29 03:33:00,43.5,40.9,29.97,NNE,22,0.0,0.0,91,0.00,,,0.00,WUHU21636XXSP,2013-04-29 10:33:00,
2013-04-29 03:34:00,43.5,40.9,29.97,NNE,22,0.0,0.0,91,0.00,,,0.00,WUHU21636XXSP,2013-04-29 10:34:00,
2013-04-29 03:35:00,43.5,40.9,29.97,NNE,22,0.0,0.0,91,0.00,,,0.00,WUHU21636XXSP,2013-04-29 10:35:00,
2013-04-29 03:38:00,43.5,40.9,29.97,NNE,22,0.0,0.0,91,0.00,,,0.00,WUHU21636XXSP,2013-04-29 10:38:00,
2013-04-29 03:39:00,43.3,41.0,29.97,NNE,22,0.0,0.0,92,0.00,,,0.00,WUHU21636XXSP,2013-04-29 10:39:00,
2013-04-29 03:41:00,43.2,40.9,29.97,NNE,22,0.0,0.0,92,0.00,,,0.00,WUHU21636XXSP,2013-04-29 10:41:00,
2013-04-29 03:43:00,43.0,40.7,29.97,NNE,22,0.0,0.0,92,0.00,,,0.00,WUHU21636XXSP,2013-04-29 10:43:00,
2013-04-29 03:44:00,43.0,40.7,29.97,NNE,22,0.0,0.0,92,0.00,,,0.00,WUHU21636XXSP,2013-04-29 10:44:00,
2013-04-29 03:46:00,43.0,40.7,29.97,NNE,22,0.0,0.0,92,0.00,,,0.00,WUHU21636XXSP,2013-04-29 10:46:00,
2013-04-29 03:48:00,42.8,40.5,29.97,NNE,22,0.0,0.0,92,0.00,,,0.00,WUHU21636XXSP,2013-04-29 10:48:00,
2013-04-29 03:49:00,42.8,40.5,29.97,NNE,22,0.0,0.0,92,0.00,,,0.00,WUHU21636XXSP,2013-04-29 10:49:00,
2013-04-29 03:50:00,42.8,40.5,29.97,NNE,22,0.0,0.0,92,0.00,,,0.00,WUHU21636XXSP,2013-04-29 10:50:00,
2013-04-29 03:51:00,42.8,40.5,29.97,NNE,22,0.0,0.0,92,0.00,,,0.00,WUHU21636XXSP,2013-04-29 10:51:00,
2013-04-29 03:53:00,42.8,40.5,29.98,NNE,22,0.0,0.0,92,0.00,,,0.00,WUHU21636XXSP,2013-04-29 10:53:00,
2013-04-29 03:54:00,42.8,40.5,29.98,NNE,22,0.0,0.0,92,0.00,,,0.00,WUHU21636XXSP,2013-04-29 10:54:00,
2013-04-29 03:55:00,42.8,40.5,29.98,NNE,22,0.0,0.0,92,0.00,,,0.00,WUHU21636XXSP,2013-04-29 10:55:00,
2013-04-29 03:56:00,42.8,40.5,29.98,NNE,22,0.0,0.0,92,0.00,,,0.00,WUHU21636XXSP,2013-04-29 10:56:00,
2013-04-29 03:58:00,42.6,40.3,29.98,NNE,22,0.0,0.0,92,0.00,,,0.00,WUHU21636XXSP,2013-04-29 10:58:00,
2013-04-29 03:59:00,42.6,40.3,29.98,NNE,22,0.0,0.0,92,0.00,,,0.00,WUHU21636XXSP,2013-04-29 10:59:00,
2013-04-29 04:00:00,42.6,40.3,29.98,NNE,22,0.0,0.0,92,0.00,,,0.00,WUHU21636XXSP,2013-04-29 11:00:00,
2013-04-29 04:02:00,42.6,40.3,29.98,NNE,22,0.0,0.0,92,0.00,,,0.00,WUHU21636XXSP,2013-04-29 11:02:00,
2013-04-29 04:03:00,42.6,40.3,29.98,NNE,22,0.0,0.0,92,0.00,,,0.00,WUHU21636XXSP,2013-04-29 11:03:00,
2013-04-29 04:05:00,42.6,40.3,29.98,NNE,22,0.0,0.0,92,0.00,,,0.00,WUHU21636XXSP,2013-04-29 11:05:00,
2013-04-29 04:07:00,42.6,40.3,29.98,NNE,22,0.0,0.0,92,0.00,,,0.00,WUHU21636XXSP,2013-04-29 11:07:00,
2013-04-29 04:09:00,42.6,40.3,29.98,NNE,22,0.0,0.0,92,0.00,,,0.00,WUHU21636XXSP,2013-04-29 11:09:00,
2013-04-29 04:10:00,42.6,40.3,29.98,NNE,22,0.0,0.0,92,0.00,,,0.00,WUHU21636XXSP,2013-04-29 11:10:00,
2013-04-29 04:12:00,42.8,40.5,29.98,NNE,22,0.0,0.0,92,0.00,,,0.00,WUHU21636XXSP,2013-04-29 11:12:00,
2013-04-29 04:14:00,42.6,40.3,29.98,NNE,22,0.0,0.0,92,0.00,,,0.00,WUHU21636XXSP,2013-04-29 11:14:00,
2013-04-29 04:15:00,42.8,40.5,29.98,NNE,22,0.0,0.0,92,0.00,,,0.00,WUHU21636XXSP,2013-04-29 11:15:00,
2013-04-29 04:16:00,42.8,40.5,29.98,NNE,22,0.0,0.0,92,0.00,,,0.00,WUHU21636XXSP,2013-04-29 11:16:00,
2013-04-29 04:17:00,42.8,40.5,29.98,NNE,22,0.0,0.0,92,0.00,,,0.00,WUHU21636XXSP,2013-04-29 11:17:00,
2013-04-29 04:19:00,42.8,40.5,29.98,NNE,22,0.0,0.0,92,0.00,,,0.00,WUHU21636XXSP,2013-04-29 11:19:00,
2013-04-29 04:20:00,42.8,40.5,29.98,NNE,22,0.0,0.0,92,0.00,,,0.00,WUHU21636XXSP,2013-04-29 11:20:00,
2013-04-29 04:21:00,42.8,40.5,29.98,NNE,22,0.0,0.0,92,0.00,,,0.00,WUHU21636XXSP,2013-04-29 11:21:00,
2013-04-29 04:22:00,43.0,40.7,29.98,NNE,22,0.0,0.0,92,0.00,,,0.00,WUHU21636XXSP,2013-04-29 11:22:00,
2013-04-29 04:24:00,43.0,41.0,29.98,NNE,22,0.0,0.0,93,0.00,,,0.00,WUHU21636XXSP,2013-04-29 11:24:00,
2013-04-29 04:25:00,43.0,41.0,29.98,NNE,22,0.0,0.0,93,0.00,,,0.00,WUHU21636XXSP,2013-04-29 11:25:00,
2013-04-29 04:26:00,43.2,41.2,29.98,NE,45,0.0,0.0,93,0.00,,,0.00,WUHU21636XXSP,2013-04-29 11:26:00,
2013-04-29 04:27:00,43.2,41.2,29.98,NE,45,0.0,0.0,93,0.00,,,0.00,WUHU21636XXSP,2013-04-29 11:27:00,
2013-04-29 04:30:00,43.3,41.3,29.98,NE,45,0.0,0.0,93,0.00,,,0.00,WUHU21636XXSP,2013-04-29 11:30:00,
2013-04-29 04:31:00,43.3,41.3,29.98,NE,45,0.0,0.0,93,0.00,,,0.00,WUHU21636XXSP,2013-04-29 11:31:00,
2013-04-29 04:32:00,43.3,41.3,29.98,NE,45,0.0,0.0,93,0.00,,,0.00,WUHU21636XXSP,2013-04-29 11:32:00,
2013-04-29 04:35:00,43.5,41.5,29.98,NE,45,0.0,0.0,93,0.00,,,0.00,WUHU21636XXSP,2013-04-29 11:35:00,
2013-04-29 04:36:00,43.5,41.5,29.98,NE,45,0.0,0.0,93,0.00,,,0.00,WUHU21636XXSP,2013-04-29 11:36:00,
2013-04-29 04:37:00,43.5,41.5,29.98,NE,45,0.0,0.0,93,0.00,,,0.00,WUHU21636XXSP,2013-04-29 11:37:00,
2013-04-29 04:40:00,43.7,41.7,29.98,NE,45,0.0,0.0,93,0.00,,,0.00,WUHU21636XXSP,2013-04-29 11:40:00,
2013-04-29 04:42:00,43.9,41.9,29.98,SE,135,0.0,0.0,93,0.00,,,0.00,WUHU21636XXSP,2013-04-29 11:42:00,
2013-04-29 04:45:00,43.9,41.9,29.98,SE,135,0.0,0.0,93,0.00,,,0.00,WUHU21636XXSP,2013-04-29 11:45:00,
2013-04-29 04:47:00,43.9,41.9,29.99,SE,135,0.0,0.0,93,0.00,,,0.00,WUHU21636XXSP,2013-04-29 11:47:00,
2013-04-29 04:50:00,44.2,42.2,29.99,SE,135,0.0,0.0,93,0.00,,,0.00,WUHU21636XXSP,2013-04-29 11:50:00,
2013-04-29 04:52:00,44.2,42.2,29.99,SE,135,0.0,0.0,93,0.00,,,0.00,WUHU21636XXSP,2013-04-29 11:52:00,
2013-04-29 04:53:00,44.2,42.2,29.99,SE,135,0.0,0.0,93,0.00,,,0.00,WUHU21636XXSP,2013-04-29 11:53:00,
2013-04-29 04:55:00,44.2,42.2,29.99,SE,135,0.0,0.0,93,0.00,,,0.00,WUHU21636XXSP,2013-04-29 11:55:00,
2013-04-29 04:56:00,44.2,42.2,29.99,SE,135,0.0,0.0,93,0.00,,,0.00,WUHU21636XXSP,2013-04-29 11:56:00,
2013-04-29 04:57:00,44.2,42.2,29.99,SSE,157,0.0,0.0,93,0.00,,,0.00,WUHU21636XXSP,2013-04-29 11:57:00,
2013-04-29 04:58:00,44.2,41.9,29.99,SSE,157,0.0,0.0,92,0.00,,,0.00,WUHU21636XXSP,2013-04-29 11:58:00,
2013-04-29 05:01:00,44.2,41.9,29.99,SE,135,0.0,0.0,92,0.00,,,0.00,WUHU21636XXSP,2013-04-29 12:01:00,
2013-04-29 05:02:00,44.2,41.9,29.99,SSE,157,0.0,0.0,92,0.00,,,0.00,WUHU21636XXSP,2013-04-29 12:02:00,
2013-04-29 05:03:00,44.2,41.9,29.99,SSE,157,0.0,0.0,92,0.00,,,0.00,WUHU21636XXSP,2013-04-29 12:03:00,
2013-04-29 05:06:00,44.2,41.9,29.99,SSE,157,0.0,0.0,92,0.00,,,0.00,WUHU21636XXSP,2013-04-29 12:06:00,
2013-04-29 05:07:00,44.2,41.9,29.99,SE,135,0.0,0.0,92,0.00,,,0.00,WUHU21636XXSP,2013-04-29 12:07:00,
2013-04-29 05:08:00,44.2,41.9,29.99,SE,135,0.0,0.0,92,0.00,,,0.00,WUHU21636XXSP,2013-04-29 12:08:00,
2013-04-29 05:11:00,44.2,42.2,29.99,ESE,112,0.0,0.0,93,0.00,,,0.00,WUHU21636XXSP,2013-04-29 12:11:00,
2013-04-29 05:12:00,44.2,42.2,29.99,ESE,112,0.0,0.0,93,0.00,,,0.00,WUHU21636XXSP,2013-04-29 12:12:00,
2013-04-29 05:13:00,44.4,42.4,29.99,ESE,112,0.0,0.0,93,0.00,,,0.00,WUHU21636XXSP,2013-04-29 12:13:00,
2013-04-29 05:14:00,44.4,42.4,29.99,ESE,112,0.0,0.0,93,0.00,,,0.00,WUHU21636XXSP,2013-04-29 12:14:00,
2013-04-29 05:16:00,44.2,42.2,29.99,SE,135,0.0,0.0,93,0.00,,,0.00,WUHU21636XXSP,2013-04-29 12:16:00,
2013-04-29 05:17:00,44.2,42.2,29.99,SE,135,0.0,0.0,93,0.00,,,0.00,WUHU21636XXSP,2013-04-29 12:17:00,
2013-04-29 05:18:00,44.2,42.2,29.99,SSE,157,0.0,0.0,93,0.00,,,0.00,WUHU21636XXSP,2013-04-29 12:18:00,
2013-04-29 05:19:00,44.2,42.2,29.99,SSE,157,0.0,0.0,93,0.00,,,0.00,WUHU21636XXSP,2013-04-29 12:19:00,
2013-04-29 05:21:00,44.2,42.2,29.99,ENE,67,0.0,0.0,93,0.00,,,0.00,WUHU21636XXSP,2013-04-29 12:21:00,
2013-04-29 05:23:00,44.2,42.2,29.99,East,90,0.0,0.0,93,0.00,,,0.00,WUHU21636XXSP,2013-04-29 12:23:00,
2013-04-29 05:24:00,44.2,42.2,29.99,East,90,0.0,0.0,93,0.00,,,0.00,WUHU21636XXSP,2013-04-29 12:24:00,
2013-04-29 05:26:00,44.2,42.2,30.00,East,90,0.0,0.0,93,0.00,,,0.00,WUHU21636XXSP,2013-04-29 12:26:00,
2013-04-29 05:28:00,44.2,42.2,30.00,East,90,0.0,0.0,93,0.00,,,0.00,WUHU21636XXSP,2013-04-29 12:28:00,
2013-04-29 05:29:00,44.2,42.2,29.99,East,90,0.0,0.0,93,0.00,,,0.00,WUHU21636XXSP,2013-04-29 12:29:00,
2013-04-29 05:31:00,44.2,42.2,29.99,SSE,157,0.0,0.0,93,0.00,,,0.00,WUHU21636XXSP,2013-04-29 12:31:00,
2013-04-29 05:33:00,44.2,42.2,29.99,SE,135,0.0,0.0,93,0.00,,,0.00,WUHU21636XXSP,2013-04-29 12:33:00,
2013-04-29 05:34:00,44.2,42.2,29.99,SE,135,0.0,0.0,93,0.00,,,0.00,WUHU21636XXSP,2013-04-29 12:34:00,
2013-04-29 05:37:00,44.2,42.5,29.99,ENE,67,0.0,0.0,94,0.00,,,0.00,WUHU21636XXSP,2013-04-29 12:37:00,
2013-04-29 05:38:00,44.2,42.5,30.00,ENE,67,0.0,0.0,94,0.00,,,0.00,WUHU21636XXSP,2013-04-29 12:38:00,
2013-04-29 05:39:00,44.1,42.4,29.99,SSE,157,0.0,0.0,94,0.00,,,0.00,WUHU21636XXSP,2013-04-29 12:39:00,
2013-04-29 05:42:00,43.9,42.2,29.99,SE,135,0.0,0.0,94,0.00,,,0.00,WUHU21636XXSP,2013-04-29 12:42:00,
2013-04-29 05:43:00,43.9,42.2,29.99,East,90,0.0,0.0,94,0.00,,,0.00,WUHU21636XXSP,2013-04-29 12:43:00,
2013-04-29 05:44:00,43.9,42.2,29.99,East,90,0.0,0.0,94,0.00,,,0.00,WUHU21636XXSP,2013-04-29 12:44:00,
2013-04-29 05:47:00,43.9,42.5,29.99,ESE,112,0.0,0.0,95,0.00,,,0.00,WUHU21636XXSP,2013-04-29 12:47:00,
2013-04-29 05:49:00,43.9,42.5,29.99,ESE,112,0.0,0.0,95,0.00,,,0.00,WUHU21636XXSP,2013-04-29 12:49:00,
2013-04-29 05:53:00,43.9,42.5,29.99,ENE,67,0.0,0.0,95,0.00,,,0.00,WUHU21636XXSP,2013-04-29 12:53:00,
2013-04-29 05:54:00,43.9,42.5,29.99,East,90,0.0,0.0,95,0.00,,,0.00,WUHU21636XXSP,2013-04-29 12:54:00,
2013-04-29 05:55:00,43.9,42.5,29.99,East,90,0.0,0.0,95,0.02,,,0.02,WUHU21636XXSP,2013-04-29 12:55:00,
2013-04-29 05:58:00,43.9,42.5,30.00,East,90,0.0,0.0,95,0.02,,,0.02,WUHU21636XXSP,2013-04-29 12:58:00,
2013-04-29 05:59:00,43.9,42.5,29.99,SSE,157,0.0,0.0,95,0.02,,,0.02,WUHU21636XXSP,2013-04-29 12:59:00,
2013-04-29 06:00:00,43.9,42.5,29.99,SSE,157,0.0,0.0,95,0.02,,,0.02,WUHU21636XXSP,2013-04-29 13:00:00,
2013-04-29 06:03:00,43.7,42.3,29.99,ESE,112,0.0,0.0,95,0.02,,,0.02,WUHU21636XXSP,2013-04-29 13:03:00,
2013-04-29 06:04:00,43.7,42.3,29.99,ESE,112,0.0,0.0,95,0.02,,,0.02,WUHU21636XXSP,2013-04-29 13:04:00,
2013-04-29 06:05:00,43.5,42.1,29.99,East,90,0.0,0.0,95,0.02,,,0.02,WUHU21636XXSP,2013-04-29 13:05:00,
2013-04-29 06:08:00,43.7,42.3,29.99,SE,135,0.0,0.0,95,0.02,,,0.02,WUHU21636XXSP,2013-04-29 13:08:00,
2013-04-29 06:09:00,43.5,42.1,30.00,NE,45,0.0,0.0,95,0.02,,,0.02,WUHU21636XXSP,2013-04-29 13:09:00,
2013-04-29 06:10:00,43.5,42.1,30.00,NE,45,0.0,0.0,95,0.02,,,0.02,WUHU21636XXSP,2013-04-29 13:10:00,
2013-04-29 06:11:00,43.5,42.1,29.99,NE,45,0.0,0.0,95,0.02,,,0.02,WUHU21636XXSP,2013-04-29 13:11:00,
2013-04-29 06:14:00,43.5,42.1,30.00,SE,135,0.0,0.0,95,0.02,,,0.02,WUHU21636XXSP,2013-04-29 13:14:00,
2013-04-29 06:15:00,43.5,42.1,30.00,SE,135,0.0,0.0,95,0.02,,,0.02,WUHU21636XXSP,2013-04-29 13:15:00,
2013-04-29 06:16:00,43.3,41.6,30.00,ENE,67,0.0,0.0,94,0.02,,,0.02,WUHU21636XXSP,2013-04-29 13:16:00,
2013-04-29 06:19:00,43.3,41.9,30.00,ESE,112,0.0,0.0,95,0.02,,,0.02,WUHU21636XXSP,2013-04-29 13:19:00,
2013-04-29 06:20:00,43.3,41.9,30.00,NE,45,0.0,0.0,95,0.02,,,0.02,WUHU21636XXSP,2013-04-29 13:20:00,
2013-04-29 06:21:00,43.3,41.9,30.00,NE,45,0.0,0.0,95,0.02,,,0.02,WUHU21636XXSP,2013-04-29 13:21:00,
2013-04-29 06:24:00,43.3,41.9,30.00,ESE,112,0.0,0.0,95,0.02,,,0.02,WUHU21636XXSP,2013-04-29 13:24:00,
2013-04-29 06:25:00,43.3,41.9,30.00,ESE,112,0.0,0.0,95,0.02,,,0.02,WUHU21636XXSP,2013-04-29 13:25:00,
2013-04-29 06:26:00,43.3,41.9,30.00,East,90,0.0,0.0,95,0.02,,,0.02,WUHU21636XXSP,2013-04-29 13:26:00,
2013-04-29 06:29:00,43.3,41.9,30.01,ESE,112,0.0,0.0,95,0.02,,,0.02,WUHU21636XXSP,2013-04-29 13:29:00,
2013-04-29 06:30:00,43.3,41.9,30.01,ESE,112,0.0,0.0,95,0.02,,,0.02,WUHU21636XXSP,2013-04-29 13:30:00,
2013-04-29 06:31:00,43.3,41.9,30.01,SE,135,0.0,0.0,95,0.02,,,0.02,WUHU21636XXSP,2013-04-29 13:31:00,
2013-04-29 06:32:00,43.3,41.9,30.01,SE,135,0.0,0.0,95,0.02,,,0.02,WUHU21636XXSP,2013-04-29 13:32:00,
2013-04-29 06:34:00,43.3,41.6,30.01,ESE,112,0.0,0.0,94,0.02,,,0.02,WUHU21636XXSP,2013-04-29 13:34:00,
2013-04-29 06:35:00,43.3,41.6,30.01,ESE,112,0.0,0.0,94,0.02,,,0.02,WUHU21636XXSP,2013-04-29 13:35:00,
2013-04-29 06:36:00,43.3,41.6,30.01,ESE,112,0.0,0.0,94,0.02,,,0.02,WUHU21636XXSP,2013-04-29 13:36:00,
2013-04-29 06:37:00,43.3,41.6,30.01,West,270,0.0,0.0,94,0.02,,,0.02,WUHU21636XXSP,2013-04-29 13:37:00,
2013-04-29 06:39:00,43.3,41.9,30.01,NE,45,0.0,0.0,95,0.02,,,0.02,WUHU21636XXSP,2013-04-29 13:39:00,
2013-04-29 06:40:00,43.3,41.9,30.01,NE,45,0.0,0.0,95,0.02,,,0.02,WUHU21636XXSP,2013-04-29 13:40:00,
2013-04-29 06:41:00,43.3,41.9,30.01,NE,45,0.0,0.0,95,0.02,,,0.02,WUHU21636XXSP,2013-04-29 13:41:00,
2013-04-29 06:42:00,43.3,41.6,30.01,ENE,67,0.0,0.0,94,0.02,,,0.02,WUHU21636XXSP,2013-04-29 13:42:00,
2013-04-29 06:44:00,43.3,41.6,30.01,East,90,0.0,0.0,94,0.02,,,0.02,WUHU21636XXSP,2013-04-29 13:44:00,
2013-04-29 06:45:00,43.3,41.6,30.01,East,90,0.0,0.0,94,0.02,,,0.02,WUHU21636XXSP,2013-04-29 13:45:00,
2013-04-29 06:46:00,43.3,41.6,30.01,East,90,0.0,0.0,94,0.02,,,0.02,WUHU21636XXSP,2013-04-29 13:46:00,
2013-04-29 06:48:00,43.3,41.6,30.02,East,90,0.0,0.0,94,0.02,,,0.02,WUHU21636XXSP,2013-04-29 13:48:00,
2013-04-29 06:50:00,43.3,41.6,30.02,SE,135,0.0,0.0,94,0.02,,,0.02,WUHU21636XXSP,2013-04-29 13:50:00,
2013-04-29 06:51:00,43.3,41.6,30.02,SE,135,0.0,0.0,94,0.02,,,0.02,WUHU21636XXSP,2013-04-29 13:51:00,
2013-04-29 06:53:00,43.5,42.1,30.02,East,90,0.0,0.0,95,0.02,,,0.02,WUHU21636XXSP,2013-04-29 13:53:00,
2013-04-29 06:55:00,43.3,41.6,30.02,SE,135,0.0,0.0,94,0.00,,,0.02,WUHU21636XXSP,2013-04-29 13:55:00,
2013-04-29 06:56:00,43.3,41.6,30.02,SE,135,0.0,0.0,94,0.00,,,0.02,WUHU21636XXSP,2013-04-29 13:56:00,
2013-04-29 06:59:00,43.5,42.1,30.03,SSE,157,0.0,0.0,95,0.00,,,0.02,WUHU21636XXSP,2013-04-29 13:59:00,
2013-04-29 07:00:00,43.5,42.1,30.02,SSE,157,0.0,0.0,95,0.00,,,0.02,WUHU21636XXSP,2013-04-29 14:00:00,
2013-04-29 07:01:00,43.5,42.1,30.02,SSE,157,0.0,0.0,95,0.00,,,0.02,WUHU21636XXSP,2013-04-29 14:01:00,
2013-04-29 07:04:00,43.5,42.1,30.03,East,90,0.0,0.0,95,0.00,,,0.02,WUHU21636XXSP,2013-04-29 14:04:00,
2013-04-29 07:05:00,43.7,42.3,30.03,ESE,112,0.0,0.0,95,0.00,,,0.02,WUHU21636XXSP,2013-04-29 14:05:00,
2013-04-29 07:06:00,43.7,42.3,30.03,ESE,112,0.0,0.0,95,0.00,,,0.02,WUHU21636XXSP,2013-04-29 14:06:00,
2013-04-29 07:07:00,43.7,42.3,30.02,ESE,112,0.0,0.0,95,0.00,,,0.02,WUHU21636XXSP,2013-04-29 14:07:00,
2013-04-29 07:09:00,43.7,42.3,30.03,ESE,112,0.0,0.0,95,0.00,,,0.02,WUHU21636XXSP,2013-04-29 14:09:00,
2013-04-29 07:11:00,43.7,42.3,30.03,ESE,112,0.0,0.0,95,0.00,,,0.02,WUHU21636XXSP,2013-04-29 14:11:00,
2013-04-29 07:12:00,43.7,42.3,30.03,SE,135,0.0,0.0,95,0.00,,,0.02,WUHU21636XXSP,2013-04-29 14:12:00,
2013-04-29 07:14:00,43.9,42.5,30.03,East,90,0.0,0.0,95,0.00,,,0.02,WUHU21636XXSP,2013-04-29 14:14:00,
2013-04-29 07:16:00,43.7,42.3,30.03,SE,135,0.0,0.0,95,0.00,,,0.02,WUHU21636XXSP,2013-04-29 14:16:00,
2013-04-29 07:18:00,43.7,42.3,30.03,SE,135,0.0,0.0,95,0.00,,,0.02,WUHU21636XXSP,2013-04-29 14:18:00,
2013-04-29 07:19:00,43.5,41.8,30.03,East,90,0.0,0.0,94,0.00,,,0.02,WUHU21636XXSP,2013-04-29 14:19:00,
2013-04-29 07:21:00,43.5,41.8,30.03,East,90,0.0,0.0,94,0.00,,,0.02,WUHU21636XXSP,2013-04-29 14:21:00,
2013-04-29 07:22:00,43.5,41.8,30.04,East,90,0.0,0.0,94,0.00,,,0.02,WUHU21636XXSP,2013-04-29 14:22:00,
2013-04-29 07:23:00,43.5,41.8,30.03,NE,45,0.0,0.0,94,0.00,,,0.02,WUHU21636XXSP,2013-04-29 14:23:00,
2013-04-29 07:24:00,43.5,41.8,30.04,NE,45,0.0,0.0,94,0.00,,,0.02,WUHU21636XXSP,2013-04-29 14:24:00,
2013-04-29 07:26:00,43.5,41.5,30.04,SE,135,0.0,0.0,93,0.00,,,0.02,WUHU21636XXSP,2013-04-29 14:26:00,
2013-04-29 07:27:00,43.5,41.5,30.04,NNE,22,0.0,0.0,93,0.00,,,0.02,WUHU21636XXSP,2013-04-29 14:27:00,
2013-04-29 07:28:00,43.5,41.5,30.04,NNE,22,0.0,0.0,93,0.00,,,0.02,WUHU21636XXSP,2013-04-29 14:28:00,
2013-04-29 07:29:00,43.5,41.5,30.04,NE,45,0.0,0.0,93,0.00,,,0.02,WUHU21636XXSP,2013-04-29 14:29:00,
2013-04-29 07:31:00,43.3,41.0,30.04,SE,135,0.0,0.0,92,0.00,,,0.02,WUHU21636XXSP,2013-04-29 14:31:00,
2013-04-29 07:32:00,43.3,41.0,30.04,SE,135,0.0,0.0,92,0.00,,,0.02,WUHU21636XXSP,2013-04-29 14:32:00,
2013-04-29 07:33:00,43.3,41.0,30.04,ESE,112,0.0,0.0,92,0.00,,,0.02,WUHU21636XXSP,2013-04-29 14:33:00,
2013-04-29 07:35:00,43.3,41.0,30.04,ESE,112,0.0,0.0,92,0.00,,,0.02,WUHU21636XXSP,2013-04-29 14:35:00,
2013-04-29 07:36:00,43.5,41.2,30.04,ESE,112,0.0,0.0,92,0.00,,,0.02,WUHU21636XXSP,2013-04-29 14:36:00,
2013-04-29 07:37:00,43.5,41.2,30.04,ESE,112,0.0,0.0,92,0.00,,,0.02,WUHU21636XXSP,2013-04-29 14:37:00,
2013-04-29 07:39:00,43.3,41.0,30.04,ESE,112,0.0,0.0,92,0.00,,,0.02,WUHU21636XXSP,2013-04-29 14:39:00,
2013-04-29 07:40:00,43.3,41.0,30.04,East,90,0.0,0.0,92,0.00,,,0.02,WUHU21636XXSP,2013-04-29 14:40:00,
2013-04-29 07:41:00,43.3,41.0,30.04,East,90,0.0,0.0,92,0.00,,,0.02,WUHU21636XXSP,2013-04-29 14:41:00,
2013-04-29 07:42:00,43.3,41.0,30.04,East,90,0.0,0.0,92,0.00,,,0.02,WUHU21636XXSP,2013-04-29 14:42:00,
2013-04-29 07:44:00,43.3,41.0,30.04,East,90,0.0,0.0,92,0.00,,,0.02,WUHU21636XXSP,2013-04-29 14:44:00,
2013-04-29 07:45:00,43.3,41.0,30.04,East,90,0.0,0.0,92,0.00,,,0.02,WUHU21636XXSP,2013-04-29 14:45:00,
2013-04-29 07:47:00,43.3,41.0,30.05,NNE,22,0.0,0.0,92,0.00,,,0.02,WUHU21636XXSP,2013-04-29 14:47:00,
2013-04-29 07:48:00,43.3,41.0,30.05,NNE,22,0.0,0.0,92,0.00,,,0.02,WUHU21636XXSP,2013-04-29 14:48:00,
2013-04-29 07:49:00,43.3,41.0,30.05,NE,45,0.0,0.0,92,0.00,,,0.02,WUHU21636XXSP,2013-04-29 14:49:00,
2013-04-29 07:50:00,43.3,41.0,30.05,NE,45,0.0,0.0,92,0.00,,,0.02,WUHU21636XXSP,2013-04-29 14:50:00,
2013-04-29 07:52:00,43.3,40.7,30.05,NE,45,0.0,0.0,91,0.00,,,0.02,WUHU21636XXSP,2013-04-29 14:52:00,
2013-04-29 07:53:00,43.3,41.0,30.05,NE,45,0.0,0.0,92,0.00,,,0.02,WUHU21636XXSP,2013-04-29 14:53:00,
2013-04-29 07:54:00,43.3,41.0,30.05,NE,45,0.0,0.0,92,0.00,,,0.02,WUHU21636XXSP,2013-04-29 14:54:00,
2013-04-29 07:55:00,43.3,41.0,30.05,East,90,0.0,0.0,92,0.00,,,0.02,WUHU21636XXSP,2013-04-29 14:55:00,
2013-04-29 07:57:00,43.3,41.0,30.05,East,90,0.0,0.0,92,0.00,,,0.02,WUHU21636XXSP,2013-04-29 14:57:00,
2013-04-29 07:58:00,43.3,41.0,30.05,East,90,0.0,0.0,92,0.00,,,0.02,WUHU21636XXSP,2013-04-29 14:58:00,
2013-04-29 07:59:00,43.3,40.7,30.05,ENE,67,0.0,0.0,91,0.00,,,0.02,WUHU21636XXSP,2013-04-29 14:59:00,
2013-04-29 08:01:00,43.3,40.7,30.06,ENE,67,0.0,0.0,91,0.00,,,0.02,WUHU21636XXSP,2013-04-29 15:01:00,
2013-04-29 08:02:00,43.3,40.7,30.06,SE,135,0.0,0.0,91,0.00,,,0.02,WUHU21636XXSP,2013-04-29 15:02:00,
2013-04-29 08:03:00,43.3,40.7,30.06,SE,135,0.0,0.0,91,0.00,,,0.02,WUHU21636XXSP,2013-04-29 15:03:00,
2013-04-29 08:05:00,43.3,40.7,30.06,ESE,112,0.0,0.0,91,0.00,,,0.02,WUHU21636XXSP,2013-04-29 15:05:00,
2013-04-29 08:06:00,43.5,41.2,30.06,ESE,112,0.0,0.0,92,0.00,,,0.02,WUHU21636XXSP,2013-04-29 15:06:00,
2013-04-29 08:07:00,43.5,41.2,30.06,ESE,112,0.0,0.0,92,0.00,,,0.02,WUHU21636XXSP,2013-04-29 15:07:00,
2013-04-29 08:08:00,43.5,40.9,30.06,ESE,112,0.0,0.0,91,0.00,,,0.02,WUHU21636XXSP,2013-04-29 15:08:00,
2013-04-29 08:10:00,43.3,40.7,30.06,ESE,112,0.0,0.0,91,0.00,,,0.02,WUHU21636XXSP,2013-04-29 15:10:00,
2013-04-29 08:11:00,43.3,40.7,30.06,ESE,112,0.0,0.0,91,0.00,,,0.02,WUHU21636XXSP,2013-04-29 15:11:00,
2013-04-29 08:12:00,43.5,40.9,30.06,NE,45,0.6,0.6,91,0.00,,,0.02,WUHU21636XXSP,2013-04-29 15:12:00,
2013-04-29 08:13:00,43.5,40.9,30.06,NE,45,0.6,0.6,91,0.00,,,0.02,WUHU21636XXSP,2013-04-29 15:13:00,
2013-04-29 08:14:00,43.5,40.9,30.06,NE,45,0.6,0.6,91,0.00,,,0.02,WUHU21636XXSP,2013-04-29 15:14:00,
2013-04-29 08:15:00,43.5,40.9,30.06,NE,45,0.6,0.6,91,0.00,,,0.02,WUHU21636XXSP,2013-04-29 15:15:00,
2013-04-29 08:17:00,43.5,40.9,30.06,East,90,0.0,0.6,91,0.00,,,0.02,WUHU21636XXSP,2013-04-29 15:17:00,
2013-04-29 08:18:00,43.5,40.9,30.06,East,90,0.0,0.6,91,0.00,,,0.02,WUHU21636XXSP,2013-04-29 15:18:00,
2013-04-29 08:19:00,43.5,40.9,30.06,East,90,0.0,0.6,91,0.00,,,0.02,WUHU21636XXSP,2013-04-29 15:19:00,
2013-04-29 08:20:00,43.5,40.9,30.06,East,90,0.0,0.6,91,0.00,,,0.02,WUHU21636XXSP,2013-04-29 15:20:00,
2013-04-29 08:22:00,43.5,40.6,30.06,East,90,0.0,0.6,90,0.00,,,0.02,WUHU21636XXSP,2013-04-29 15:22:00,
2013-04-29 08:23:00,43.7,41.1,30.06,East,90,0.0,0.6,91,0.00,,,0.02,WUHU21636XXSP,2013-04-29 15:23:00,
2013-04-29 08:24:00,43.7,41.1,30.06,East,90,0.0,0.6,91,0.00,,,0.02,WUHU21636XXSP,2013-04-29 15:24:00,
2013-04-29 08:26:00,43.7,40.8,30.07,SE,135,0.0,0.0,90,0.00,,,0.02,WUHU21636XXSP,2013-04-29 15:26:00,
2013-04-29 08:27:00,43.7,41.1,30.07,NNE,22,0.0,0.0,91,0.00,,,0.02,WUHU21636XXSP,2013-04-29 15:27:00,
2013-04-29 08:28:00,43.7,41.1,30.07,NNE,22,0.0,0.0,91,0.00,,,0.02,WUHU21636XXSP,2013-04-29 15:28:00,
2013-04-29 08:29:00,43.7,41.1,30.07,NNE,22,0.0,0.0,91,0.00,,,0.02,WUHU21636XXSP,2013-04-29 15:29:00,
2013-04-29 08:31:00,43.7,40.8,30.07,SE,135,4.4,4.4,90,0.00,,,0.02,WUHU21636XXSP,2013-04-29 15:31:00,
2013-04-29 08:32:00,43.5,40.6,30.07,SE,135,4.4,4.4,90,0.00,,,0.02,WUHU21636XXSP,2013-04-29 15:32:00,
2013-04-29 08:33:00,43.5,40.6,30.07,ESE,112,0.0,4.4,90,0.00,,,0.02,WUHU21636XXSP,2013-04-29 15:33:00,
2013-04-29 08:34:00,43.7,41.1,30.07,NE,46,5.1,7.1,91,0.00,,,0.02,WUHU21636XXSP,2013-04-29 15:34:00,
2013-04-29 08:36:00,43.7,41.1,30.07,ENE,67,0.8,7.1,91,0.00,,,0.02,WUHU21636XXSP,2013-04-29 15:36:00,
2013-04-29 08:38:00,43.7,41.1,30.07,ENE,67,0.8,7.1,91,0.00,,,0.02,WUHU21636XXSP,2013-04-29 15:38:00,
2013-04-29 08:39:00,43.9,41.3,30.07,SE,135,0.0,7.1,91,0.00,,,0.02,WUHU21636XXSP,2013-04-29 15:39:00,
2013-04-29 08:41:00,44.1,41.8,30.07,East,90,0.6,7.1,92,0.00,,,0.02,WUHU21636XXSP,2013-04-29 15:41:00,
2013-04-29 08:43:00,44.1,41.8,30.07,East,90,0.6,7.1,92,0.00,,,0.02,WUHU21636XXSP,2013-04-29 15:43:00,
2013-04-29 08:44:00,44.2,41.6,30.07,East,90,0.6,0.8,91,0.00,,,0.02,WUHU21636XXSP,2013-04-29 15:44:00,
2013-04-29 08:46:00,44.2,41.9,30.07,ESE,112,0.6,0.6,92,0.00,,,0.02,WUHU21636XXSP,2013-04-29 15:46:00,
2013-04-29 08:48:00,44.2,41.6,30.07,ESE,112,0.6,0.6,91,0.00,,,0.02,WUHU21636XXSP,2013-04-29 15:48:00,
2013-04-29 08:49:00,44.2,41.6,30.07,ESE,112,0.6,0.6,91,0.00,,,0.02,WUHU21636XXSP,2013-04-29 15:49:00,
2013-04-29 08:50:00,44.4,41.8,30.07,ESE,112,2.4,2.4,91,0.00,,,0.02,WUHU21636XXSP,2013-04-29 15:50:00,
2013-04-29 08:51:00,44.4,41.5,30.07,ESE,110,2.2,2.4,90,0.00,,,0.02,WUHU21636XXSP,2013-04-29 15:51:00,
2013-04-29 08:53:00,44.4,41.5,30.07,East,91,1.3,2.4,90,0.00,,,0.02,WUHU21636XXSP,2013-04-29 15:53:00,
2013-04-29 08:54:00,44.4,41.5,30.07,East,90,0.8,2.4,90,0.00,,,0.02,WUHU21636XXSP,2013-04-29 15:54:00,
2013-04-29 08:55:00,44.4,41.5,30.08,East,90,0.8,2.4,90,0.00,,,0.02,WUHU21636XXSP,2013-04-29 15:55:00,
2013-04-29 08:56:00,44.8,42.2,30.07,East,90,0.8,2.4,91,0.00,,,0.02,WUHU21636XXSP,2013-04-29 15:56:00,
2013-04-29 08:58:00,44.8,42.2,30.07,ESE,112,0.0,2.4,91,0.00,,,0.02,WUHU21636XXSP,2013-04-29 15:58:00,
2013-04-29 08:59:00,45.0,42.4,30.07,SE,135,0.0,2.4,91,0.00,,,0.02,WUHU21636XXSP,2013-04-29 15:59:00,
2013-04-29 09:00:00,45.0,42.4,30.07,SE,135,0.0,2.4,91,0.00,,,0.02,WUHU21636XXSP,2013-04-29 16:00:00,
2013-04-29 09:01:00,45.1,42.5,30.08,NE,45,2.9,2.9,91,0.00,,,0.02,WUHU21636XXSP,2013-04-29 16:01:00,
2013-04-29 09:03:00,45.3,42.1,30.08,NE,45,2.9,2.9,89,0.00,,,0.02,WUHU21636XXSP,2013-04-29 16:03:00,
2013-04-29 09:04:00,45.3,42.1,30.08,NE,45,2.9,2.9,89,0.00,,,0.02,WUHU21636XXSP,2013-04-29 16:04:00,
2013-04-29 09:05:00,45.3,41.8,30.08,NE,45,2.9,2.9,88,0.00,,,0.02,WUHU21636XXSP,2013-04-29 16:05:00,
2013-04-29 09:06:00,45.3,41.8,30.08,ENE,67,0.0,2.9,88,0.00,,,0.02,WUHU21636XXSP,2013-04-29 16:06:00,
2013-04-29 09:08:00,45.3,41.8,30.07,ENE,67,0.0,2.9,88,0.00,,,0.02,WUHU21636XXSP,2013-04-29 16:08:00,
2013-04-29 09:09:00,45.3,41.8,30.07,ESE,112,0.0,2.9,88,0.00,,,0.02,WUHU21636XXSP,2013-04-29 16:09:00,
2013-04-29 09:10:00,45.3,41.8,30.08,ESE,112,0.0,2.9,88,0.00,,,0.02,WUHU21636XXSP,2013-04-29 16:10:00,
2013-04-29 09:11:00,45.5,42.0,30.08,ESE,112,0.0,2.9,88,0.00,,,0.02,WUHU21636XXSP,2013-04-29 16:11:00,
2013-04-29 09:13:00,45.3,41.8,30.08,ENE,67,0.0,2.9,88,0.00,,,0.02,WUHU21636XXSP,2013-04-29 16:13:00,
2013-04-29 09:14:00,45.3,41.8,30.08,ENE,67,0.0,0.0,88,0.00,,,0.02,WUHU21636XXSP,2013-04-29 16:14:00,
2013-04-29 09:15:00,45.3,41.8,30.08,ENE,67,0.0,0.0,88,0.00,,,0.02,WUHU21636XXSP,2013-04-29 16:15:00,
2013-04-29 09:16:00,45.5,42.0,30.08,NE,45,0.0,0.0,88,0.00,,,0.02,WUHU21636XXSP,2013-04-29 16:16:00,
2013-04-29 09:18:00,45.7,42.2,30.08,NE,45,0.0,0.0,88,0.00,,,0.02,WUHU21636XXSP,2013-04-29 16:18:00,
2013-04-29 09:19:00,45.7,42.2,30.08,NE,45,0.0,0.0,88,0.00,,,0.02,WUHU21636XXSP,2013-04-29 16:19:00,
2013-04-29 09:20:00,45.7,42.2,30.08,NE,45,0.0,0.0,88,0.00,,,0.02,WUHU21636XXSP,2013-04-29 16:20:00,
2013-04-29 09:22:00,45.9,42.4,30.08,NE,45,0.0,0.0,88,0.00,,,0.02,WUHU21636XXSP,2013-04-29 16:22:00,
2013-04-29 09:23:00,45.9,42.4,30.08,NE,45,0.0,0.0,88,0.00,,,0.02,WUHU21636XXSP,2013-04-29 16:23:00,
2013-04-29 09:25:00,46.0,42.8,30.08,NE,45,0.0,0.0,89,0.00,,,0.02,WUHU21636XXSP,2013-04-29 16:25:00,
2013-04-29 09:27:00,46.0,42.2,30.09,ESE,112,0.0,0.0,87,0.00,,,0.02,WUHU21636XXSP,2013-04-29 16:27:00,
2013-04-29 09:28:00,46.2,42.4,30.09,ESE,112,1.5,1.5,87,0.00,,,0.02,WUHU21636XXSP,2013-04-29 16:28:00,
2013-04-29 09:30:00,46.2,42.4,30.09,ESE,112,1.5,1.5,87,0.00,,,0.02,WUHU21636XXSP,2013-04-29 16:30:00,
2013-04-29 09:31:00,46.2,42.1,30.09,East,90,2.4,2.4,86,0.00,,,0.02,WUHU21636XXSP,2013-04-29 16:31:00,
2013-04-29 09:32:00,46.2,42.1,30.09,East,90,2.4,2.4,86,0.00,,,0.02,WUHU21636XXSP,2013-04-29 16:32:00,
2013-04-29 09:34:00,46.0,41.9,30.09,East,90,2.4,2.4,86,0.00,,,0.02,WUHU21636XXSP,2013-04-29 16:34:00,
2013-04-29 09:35:00,46.0,41.6,30.09,SSE,157,0.0,2.4,85,0.00,,,0.02,WUHU21636XXSP,2013-04-29 16:35:00,
2013-04-29 09:36:00,46.0,41.6,30.09,SSE,157,0.0,2.4,85,0.00,,,0.02,WUHU21636XXSP,2013-04-29 16:36:00,
2013-04-29 09:37:00,46.0,41.9,30.09,East,90,0.0,2.4,86,0.00,,,0.02,WUHU21636XXSP,2013-04-29 16:37:00,
2013-04-29 09:39:00,46.0,41.9,30.09,ESE,112,0.0,2.4,86,0.00,,,0.02,WUHU21636XXSP,2013-04-29 16:39:00,
2013-04-29 09:40:00,46.0,41.9,30.09,ESE,112,0.0,2.4,86,0.00,,,0.02,WUHU21636XXSP,2013-04-29 16:40:00,
2013-04-29 09:41:00,46.0,42.2,30.09,ESE,112,0.0,2.4,87,0.00,,,0.02,WUHU21636XXSP,2013-04-29 16:41:00,
2013-04-29 09:42:00,46.0,42.2,30.09,ESE,112,0.0,0.0,87,0.00,,,0.02,WUHU21636XXSP,2013-04-29 16:42:00,
2013-04-29 09:44:00,45.9,41.8,30.09,ESE,112,0.0,0.0,86,0.00,,,0.02,WUHU21636XXSP,2013-04-29 16:44:00,
2013-04-29 09:45:00,45.9,41.8,30.09,ESE,112,0.0,0.0,86,0.00,,,0.02,WUHU21636XXSP,2013-04-29 16:45:00,
2013-04-29 09:46:00,45.9,42.1,30.09,East,90,0.0,0.0,87,0.00,,,0.02,WUHU21636XXSP,2013-04-29 16:46:00,
2013-04-29 09:47:00,45.9,42.1,30.09,East,90,0.0,0.0,87,0.00,,,0.02,WUHU21636XXSP,2013-04-29 16:47:00,
2013-04-29 09:49:00,45.5,41.4,30.09,NNE,22,0.0,0.0,86,0.00,,,0.02,WUHU21636XXSP,2013-04-29 16:49:00,
2013-04-29 09:50:00,45.5,41.4,30.09,NNE,22,0.0,0.0,86,0.00,,,0.02,WUHU21636XXSP,2013-04-29 16:50:00,
2013-04-29 09:51:00,45.5,41.4,30.09,NNE,22,0.0,0.0,86,0.00,,,0.02,WUHU21636XXSP,2013-04-29 16:51:00,
2013-04-29 09:52:00,45.3,41.2,30.09,NE,45,0.0,0.0,86,0.00,,,0.02,WUHU21636XXSP,2013-04-29 16:52:00,
2013-04-29 09:55:00,45.3,41.2,30.09,NE,45,0.0,0.0,86,0.00,,,0.02,WUHU21636XXSP,2013-04-29 16:55:00,
2013-04-29 09:56:00,45.1,41.3,30.09,NE,45,0.0,0.0,87,0.00,,,0.02,WUHU21636XXSP,2013-04-29 16:56:00,
2013-04-29 09:58:00,45.1,41.0,30.09,East,90,0.0,0.0,86,0.00,,,0.02,WUHU21636XXSP,2013-04-29 16:58:00,
2013-04-29 10:00:00,45.1,41.0,30.09,East,90,0.0,0.0,86,0.00,,,0.02,WUHU21636XXSP,2013-04-29 17:00:00,
2013-04-29 10:01:00,45.0,41.2,30.09,SE,135,0.0,0.0,87,0.00,,,0.02,WUHU21636XXSP,2013-04-29 17:01:00,
2013-04-29 10:03:00,45.0,41.2,30.09,South,180,0.0,0.0,87,0.00,,,0.02,WUHU21636XXSP,2013-04-29 17:03:00,
2013-04-29 10:05:00,45.0,41.2,30.09,South,180,0.0,0.0,87,0.00,,,0.02,WUHU21636XXSP,2013-04-29 17:05:00,
2013-04-29 10:06:00,45.0,41.2,30.09,South,180,0.0,0.0,87,0.00,,,0.02,WUHU21636XXSP,2013-04-29 17:06:00,
2013-04-29 10:07:00,45.0,40.9,30.09,ENE,67,0.0,0.0,86,0.00,,,0.02,WUHU21636XXSP,2013-04-29 17:07:00,
2013-04-29 10:08:00,45.0,40.9,30.09,ENE,67,0.0,0.0,86,0.00,,,0.02,WUHU21636XXSP,2013-04-29 17:08:00,
2013-04-29 10:10:00,45.0,41.2,30.09,ENE,67,0.0,0.0,87,0.00,,,0.02,WUHU21636XXSP,2013-04-29 17:10:00,
2013-04-29 10:11:00,45.0,40.9,30.09,East,90,0.0,0.0,86,0.00,,,0.02,WUHU21636XXSP,2013-04-29 17:11:00,
2013-04-29 10:12:00,45.0,40.9,30.09,East,90,0.0,0.0,86,0.00,,,0.02,WUHU21636XXSP,2013-04-29 17:12:00,
2013-04-29 10:13:00,45.1,40.7,30.09,SE,135,0.0,0.0,85,0.00,,,0.02,WUHU21636XXSP,2013-04-29 17:13:00,
2013-04-29 10:15:00,45.3,40.9,30.09,SSE,157,0.6,0.6,85,0.00,,,0.02,WUHU21636XXSP,2013-04-29 17:15:00,
2013-04-29 10:16:00,45.3,40.9,30.09,SSE,157,0.6,0.6,85,0.00,,,0.02,WUHU21636XXSP,2013-04-29 17:16:00,
2013-04-29 10:17:00,45.3,40.9,30.09,SSE,157,0.6,0.6,85,0.00,,,0.02,WUHU21636XXSP,2013-04-29 17:17:00,
2013-04-29 10:19:00,45.7,41.6,30.09,NE,45,1.5,1.5,86,0.00,,,0.02,WUHU21636XXSP,2013-04-29 17:19:00,
2013-04-29 10:20:00,45.9,41.5,30.09,East,90,3.5,3.5,85,0.00,,,0.02,WUHU21636XXSP,2013-04-29 17:20:00,
2013-04-29 10:21:00,45.9,41.5,30.09,East,90,3.5,3.5,85,0.00,,,0.02,WUHU21636XXSP,2013-04-29 17:21:00,
2013-04-29 10:22:00,46.0,41.3,30.09,East,90,3.5,3.5,83,0.00,,,0.02,WUHU21636XXSP,2013-04-29 17:22:00,
2013-04-29 10:24:00,46.0,41.3,30.09,ESE,112,0.0,3.5,83,0.00,,,0.02,WUHU21636XXSP,2013-04-29 17:24:00,
2013-04-29 10:25:00,46.0,41.6,30.09,SE,135,0.0,3.5,85,0.00,,,0.02,WUHU21636XXSP,2013-04-29 17:25:00,
2013-04-29 10:26:00,46.2,41.5,30.09,ESE,112,0.0,3.5,83,0.00,,,0.02,WUHU21636XXSP,2013-04-29 17:26:00,
2013-04-29 10:27:00,46.2,41.5,30.10,ESE,112,0.0,3.5,83,0.00,,,0.02,WUHU21636XXSP,2013-04-29 17:27:00,
2013-04-29 10:29:00,46.4,41.7,30.10,South,180,0.0,3.5,83,0.00,,,0.02,WUHU21636XXSP,2013-04-29 17:29:00,
2013-04-29 10:30:00,46.6,41.5,30.09,SE,135,0.4,3.5,82,0.00,,,0.02,WUHU21636XXSP,2013-04-29 17:30:00,
2013-04-29 10:32:00,46.6,41.5,30.10,SE,135,0.4,0.4,82,0.00,,,0.02,WUHU21636XXSP,2013-04-29 17:32:00,
2013-04-29 10:34:00,46.6,41.5,30.10,SE,135,0.4,0.4,82,0.00,,,0.02,WUHU21636XXSP,2013-04-29 17:34:00,
2013-04-29 10:35:00,46.2,40.8,30.10,SW,225,1.1,1.1,81,0.00,,,0.02,WUHU21636XXSP,2013-04-29 17:35:00,
2013-04-29 10:37:00,46.2,41.1,30.09,SSE,157,4.9,6.7,82,0.00,,,0.02,WUHU21636XXSP,2013-04-29 17:37:00,
2013-04-29 10:39:00,46.0,40.6,30.10,SSW,202,0.4,6.7,81,0.00,,,0.02,WUHU21636XXSP,2013-04-29 17:39:00,
2013-04-29 10:41:00,46.0,40.9,30.10,SSW,202,0.4,6.7,82,0.00,,,0.02,WUHU21636XXSP,2013-04-29 17:41:00,
2013-04-29 10:42:00,46.4,41.3,30.10,SE,135,0.0,6.7,82,0.00,,,0.02,WUHU21636XXSP,2013-04-29 17:42:00,
2013-04-29 10:44:00,46.6,41.5,30.10,SSE,154,6.2,7.6,82,0.00,,,0.02,WUHU21636XXSP,2013-04-29 17:44:00,
2013-04-29 10:46:00,46.6,41.2,30.10,SSE,157,3.8,8.5,81,0.00,,,0.02,WUHU21636XXSP,2013-04-29 17:46:00,
2013-04-29 10:47:00,46.6,41.2,30.10,SSW,196,2.2,8.5,81,0.00,,,0.02,WUHU21636XXSP,2013-04-29 17:47:00,
2013-04-29 10:48:00,46.8,41.1,30.10,SSW,202,2.0,8.5,80,0.00,,,0.02,WUHU21636XXSP,2013-04-29 17:48:00,
2013-04-29 10:50:00,46.9,41.5,30.10,SE,135,2.2,8.5,81,0.00,,,0.02,WUHU21636XXSP,2013-04-29 17:50:00,
2013-04-29 10:51:00,46.9,41.5,30.10,SE,135,2.2,8.5,81,0.00,,,0.02,WUHU21636XXSP,2013-04-29 17:51:00,
2013-04-29 10:52:00,47.5,42.4,30.10,East,90,2.9,8.5,82,0.00,,,0.02,WUHU21636XXSP,2013-04-29 17:52:00,
2013-04-29 10:53:00,47.5,42.4,30.10,East,90,2.9,8.5,82,0.00,,,0.02,WUHU21636XXSP,2013-04-29 17:53:00,
2013-04-29 10:55:00,47.8,42.1,30.10,East,90,2.9,5.5,80,0.00,,,0.02,WUHU21636XXSP,2013-04-29 17:55:00,
2013-04-29 10:56:00,47.8,42.4,30.10,SE,135,0.0,2.9,81,0.00,,,0.02,WUHU21636XXSP,2013-04-29 17:56:00,
2013-04-29 10:57:00,47.8,42.4,30.10,SE,135,0.0,2.9,81,0.00,,,0.02,WUHU21636XXSP,2013-04-29 17:57:00,
2013-04-29 10:58:00,47.8,42.4,30.10,SE,135,0.0,2.9,81,0.00,,,0.02,WUHU21636XXSP,2013-04-29 17:58:00,
2013-04-29 11:00:00,47.8,41.4,30.10,SE,135,0.0,2.9,78,0.00,,,0.02,WUHU21636XXSP,2013-04-29 18:00:00,
2013-04-29 11:01:00,47.8,41.7,30.10,SE,135,4.2,4.2,79,0.00,,,0.02,WUHU21636XXSP,2013-04-29 18:01:00,
2013-04-29 11:02:00,47.8,41.7,30.10,SE,135,4.2,4.2,79,0.00,,,0.02,WUHU21636XXSP,2013-04-29 18:02:00,
2013-04-29 11:03:00,47.8,41.1,30.10,SE,137,4.1,4.2,77,0.00,,,0.02,WUHU21636XXSP,2013-04-29 18:03:00,
2013-04-29 11:05:00,47.8,41.4,30.10,SSE,157,3.5,4.2,78,0.00,,,0.02,WUHU21636XXSP,2013-04-29 18:05:00,
2013-04-29 11:07:00,47.8,41.4,30.11,SSE,157,3.5,4.2,78,0.00,,,0.02,WUHU21636XXSP,2013-04-29 18:07:00,
2013-04-29 11:08:00,48.0,41.6,30.11,SE,135,2.9,4.2,78,0.00,,,0.02,WUHU21636XXSP,2013-04-29 18:08:00,
2013-04-29 11:10:00,48.0,41.6,30.11,SE,146,2.4,4.2,78,0.00,,,0.02,WUHU21636XXSP,2013-04-29 18:10:00,
2013-04-29 11:12:00,48.0,41.3,30.11,SSE,157,2.0,4.2,77,0.00,,,0.02,WUHU21636XXSP,2013-04-29 18:12:00,
2013-04-29 11:13:00,48.0,41.3,30.11,SSE,157,2.0,3.5,77,0.00,,,0.02,WUHU21636XXSP,2013-04-29 18:13:00,
2013-04-29 11:15:00,48.2,41.8,30.10,ENE,67,0.0,2.9,78,0.00,,,0.02,WUHU21636XXSP,2013-04-29 18:15:00,
2013-04-29 11:17:00,48.6,42.2,30.10,ENE,67,0.0,2.9,78,0.00,,,0.02,WUHU21636XXSP,2013-04-29 18:17:00,
2013-04-29 11:18:00,48.9,42.5,30.10,ESE,112,0.0,2.9,78,0.00,,,0.02,WUHU21636XXSP,2013-04-29 18:18:00,
2013-04-29 11:19:00,48.9,42.5,30.10,ESE,112,0.0,2.9,78,0.00,,,0.02,WUHU21636XXSP,2013-04-29 18:19:00,
2013-04-29 11:21:00,49.3,42.5,30.10,NE,45,3.1,3.1,77,0.00,,,0.02,WUHU21636XXSP,2013-04-29 18:21:00,
2013-04-29 11:22:00,49.6,41.8,30.10,NNE,22,6.4,7.1,74,0.00,,,0.02,WUHU21636XXSP,2013-04-29 18:22:00,
2013-04-29 11:23:00,49.6,41.1,30.10,NE,37,3.8,7.1,72,0.00,,,0.02,WUHU21636XXSP,2013-04-29 18:23:00,
2013-04-29 11:24:00,49.6,41.1,30.10,NE,49,3.3,7.1,72,0.00,,,0.02,WUHU21636XXSP,2013-04-29 18:24:00,
2013-04-29 11:26:00,49.6,41.4,30.10,NE,45,2.9,7.1,73,0.00,,,0.02,WUHU21636XXSP,2013-04-29 18:26:00,
2013-04-29 11:27:00,49.8,41.6,30.10,NE,56,2.6,7.1,73,0.00,,,0.02,WUHU21636XXSP,2013-04-29 18:27:00,
2013-04-29 11:28:00,49.8,41.6,30.10,ENE,65,2.4,7.1,73,0.00,,,0.02,WUHU21636XXSP,2013-04-29 18:28:00,
2013-04-29 11:29:00,49.8,41.6,30.10,East,90,2.0,7.1,73,0.00,,,0.02,WUHU21636XXSP,2013-04-29 18:29:00,
2013-04-29 11:30:00,50.2,42.0,30.11,SE,142,4.0,8.5,73,0.00,,,0.02,WUHU21636XXSP,2013-04-29 18:30:00,
2013-04-29 11:31:00,50.0,41.5,30.11,SSE,148,4.5,8.5,72,0.00,,,0.02,WUHU21636XXSP,2013-04-29 18:31:00,
2013-04-29 11:33:00,50.0,41.1,30.11,SE,138,2.5,8.5,71,0.00,,,0.02,WUHU21636XXSP,2013-04-29 18:33:00,
2013-04-29 11:34:00,50.0,41.1,30.11,SSE,150,1.0,8.5,71,0.00,,,0.02,WUHU21636XXSP,2013-04-29 18:34:00,
2013-04-29 11:35:00,49.8,41.3,30.11,SSE,157,0.8,8.5,72,0.00,,,0.02,WUHU21636XXSP,2013-04-29 18:35:00,
2013-04-29 11:36:00,49.8,41.3,30.11,SSE,157,0.8,8.5,72,0.00,,,0.02,WUHU21636XXSP,2013-04-29 18:36:00,
2013-04-29 11:38:00,49.8,42.0,30.11,ENE,67,3.8,8.5,74,0.00,,,0.02,WUHU21636XXSP,2013-04-29 18:38:00,
2013-04-29 11:40:00,49.5,40.6,30.11,ENE,73,3.1,6.2,71,0.00,,,0.02,WUHU21636XXSP,2013-04-29 18:40:00,
2013-04-29 11:41:00,49.1,40.6,30.11,ESE,112,4.4,4.4,72,0.00,,,0.02,WUHU21636XXSP,2013-04-29 18:41:00,
2013-04-29 11:43:00,48.9,40.4,30.11,ESE,111,4.0,4.4,72,0.00,,,0.02,WUHU21636XXSP,2013-04-29 18:43:00,
2013-04-29 11:45:00,48.9,40.4,30.11,East,95,1.3,4.4,72,0.00,,,0.02,WUHU21636XXSP,2013-04-29 18:45:00,
2013-04-29 11:46:00,49.1,40.9,30.11,ENE,67,0.6,4.4,73,0.00,,,0.02,WUHU21636XXSP,2013-04-29 18:46:00,
2013-04-29 11:48:00,49.1,40.9,30.11,SE,135,3.5,4.4,73,0.00,,,0.02,WUHU21636XXSP,2013-04-29 18:48:00,
2013-04-29 11:50:00,49.1,40.9,30.11,SE,135,3.5,4.4,73,0.00,,,0.02,WUHU21636XXSP,2013-04-29 18:50:00,
2013-04-29 11:51:00,49.1,40.9,30.11,SE,135,3.5,4.4,73,0.00,,,0.02,WUHU21636XXSP,2013-04-29 18:51:00,
2013-04-29 11:53:00,48.9,40.8,30.11,ESE,112,0.0,3.5,73,0.00,,,0.02,WUHU21636XXSP,2013-04-29 18:53:00,
2013-04-29 11:54:00,48.9,40.8,30.11,ESE,112,0.0,3.5,73,0.00,,,0.02,WUHU21636XXSP,2013-04-29 18:54:00,
2013-04-29 11:55:00,49.1,40.9,30.10,ESE,112,0.0,3.5,73,0.00,,,0.02,WUHU21636XXSP,2013-04-29 18:55:00,
2013-04-29 11:56:00,49.1,41.3,30.11,SSE,157,3.1,3.5,74,0.00,,,0.02,WUHU21636XXSP,2013-04-29 18:56:00,
2013-04-29 11:58:00,49.1,41.3,30.11,SSE,157,3.1,3.5,74,0.00,,,0.02,WUHU21636XXSP,2013-04-29 18:58:00,
2013-04-29 11:59:00,49.1,41.3,30.11,SSE,157,3.1,3.5,74,0.00,,,0.02,WUHU21636XXSP,2013-04-29 18:59:00,
2013-04-29 12:00:00,49.1,41.3,30.11,SSE,157,3.1,3.1,74,0.00,,,0.02,WUHU21636XXSP,2013-04-29 19:00:00,
2013-04-29 12:01:00,49.1,40.9,30.11,SSE,157,0.0,3.1,73,0.00,,,0.02,WUHU21636XXSP,2013-04-29 19:01:00,
2013-04-29 12:03:00,49.1,40.9,30.10,SSE,157,0.0,3.1,73,0.00,,,0.02,WUHU21636XXSP,2013-04-29 19:03:00,
2013-04-29 12:04:00,49.1,40.9,30.10,SSE,157,0.0,3.1,73,0.00,,,0.02,WUHU21636XXSP,2013-04-29 19:04:00,
2013-04-29 12:05:00,49.1,41.3,30.10,SE,135,0.0,3.1,74,0.00,,,0.02,WUHU21636XXSP,2013-04-29 19:05:00,
2013-04-29 12:06:00,49.1,41.3,30.10,SE,135,0.0,3.1,74,0.00,,,0.02,WUHU21636XXSP,2013-04-29 19:06:00,
2013-04-29 12:08:00,49.3,41.5,30.11,SE,135,0.0,3.1,74,0.00,,,0.02,WUHU21636XXSP,2013-04-29 19:08:00,
2013-04-29 12:09:00,49.3,41.1,30.10,SE,135,0.0,0.0,73,0.00,,,0.02,WUHU21636XXSP,2013-04-29 19:09:00,
2013-04-29 12:10:00,49.3,41.1,30.10,SE,135,0.0,0.0,73,0.00,,,0.02,WUHU21636XXSP,2013-04-29 19:10:00,
2013-04-29 12:11:00,49.3,41.1,30.11,SSE,157,0.0,0.0,73,0.00,,,0.02,WUHU21636XXSP,2013-04-29 19:11:00,
2013-04-29 12:13:00,49.3,41.1,30.11,SSE,157,0.0,0.0,73,0.00,,,0.02,WUHU21636XXSP,2013-04-29 19:13:00,
2013-04-29 12:14:00,49.6,40.7,30.11,SSE,157,0.0,0.0,71,0.00,,,0.02,WUHU21636XXSP,2013-04-29 19:14:00,
2013-04-29 12:16:00,49.6,41.1,30.11,SE,135,0.0,0.0,72,0.00,,,0.02,WUHU21636XXSP,2013-04-29 19:16:00,
2013-04-29 12:19:00,49.6,41.1,30.11,NNE,22,0.4,0.4,72,0.00,,,0.02,WUHU21636XXSP,2013-04-29 19:19:00,
2013-04-29 12:20:00,49.6,41.1,30.11,NNE,22,0.4,0.4,72,0.00,,,0.02,WUHU21636XXSP,2013-04-29 19:20:00,
2013-04-29 12:21:00,49.8,41.6,30.11,NNE,22,0.4,0.4,73,0.00,,,0.02,WUHU21636XXSP,2013-04-29 19:21:00,
2013-04-29 12:22:00,49.8,41.6,30.11,SE,135,0.0,0.4,73,0.00,,,0.02,WUHU21636XXSP,2013-04-29 19:22:00,
2013-04-29 12:24:00,50.2,41.6,30.10,SE,135,0.0,0.4,72,0.00,,,0.02,WUHU21636XXSP,2013-04-29 19:24:00,
2013-04-29 12:25:00,50.7,41.4,30.10,ESE,112,2.4,2.4,70,0.00,,,0.02,WUHU21636XXSP,2013-04-29 19:25:00,
2013-04-29 12:26:00,50.7,41.4,30.10,ESE,112,2.4,2.4,70,0.00,,,0.02,WUHU21636XXSP,2013-04-29 19:26:00,
2013-04-29 12:27:00,50.7,41.4,30.10,ESE,117,2.1,2.4,70,0.00,,,0.02,WUHU21636XXSP,2013-04-29 19:27:00,
2013-04-29 12:29:00,51.1,41.8,30.10,SE,135,2.0,2.4,70,0.00,,,0.02,WUHU21636XXSP,2013-04-29 19:29:00,
2013-04-29 12:30:00,51.1,41.8,30.10,SE,135,2.0,2.4,70,0.00,,,0.02,WUHU21636XXSP,2013-04-29 19:30:00,
2013-04-29 12:31:00,51.4,40.9,30.10,ENE,67,4.2,4.2,67,0.00,,,0.02,WUHU21636XXSP,2013-04-29 19:31:00,
2013-04-29 12:32:00,51.4,40.9,30.10,ENE,67,4.2,4.2,67,0.00,,,0.02,WUHU21636XXSP,2013-04-29 19:32:00,
2013-04-29 12:34:00,52.0,40.7,30.10,NE,46,4.8,7.3,65,0.00,,,0.02,WUHU21636XXSP,2013-04-29 19:34:00,
2013-04-29 12:35:00,52.0,40.7,30.10,NNE,32,4.4,7.3,65,0.00,,,0.02,WUHU21636XXSP,2013-04-29 19:35:00,
2013-04-29 12:37:00,52.3,41.8,30.10,SE,135,0.0,7.3,67,0.00,,,0.02,WUHU21636XXSP,2013-04-29 19:37:00,
2013-04-29 12:39:00,52.7,41.3,30.10,SSE,157,0.0,7.3,65,0.00,,,0.02,WUHU21636XXSP,2013-04-29 19:39:00,
2013-04-29 12:40:00,52.7,41.3,30.10,SSE,157,0.0,7.3,65,0.00,,,0.02,WUHU21636XXSP,2013-04-29 19:40:00,
2013-04-29 12:42:00,53.2,41.8,30.10,SE,135,0.0,7.3,65,0.00,,,0.02,WUHU21636XXSP,2013-04-29 19:42:00,
2013-04-29 12:43:00,53.4,41.6,30.10,East,90,2.6,6.4,64,0.00,,,0.02,WUHU21636XXSP,2013-04-29 19:43:00,
2013-04-29 12:44:00,53.4,41.6,30.10,East,90,2.6,2.6,64,0.00,,,0.02,WUHU21636XXSP,2013-04-29 19:44:00,
2013-04-29 12:45:00,53.8,40.7,30.10,East,90,2.6,2.6,61,0.00,,,0.02,WUHU21636XXSP,2013-04-29 19:45:00,
2013-04-29 12:47:00,54.1,41.0,30.10,South,180,0.0,2.6,61,0.00,,,0.02,WUHU21636XXSP,2013-04-29 19:47:00,
2013-04-29 12:48:00,54.1,41.0,30.10,South,180,0.0,2.6,61,0.00,,,0.02,WUHU21636XXSP,2013-04-29 19:48:00,
2013-04-29 12:49:00,54.1,40.1,30.10,SSE,157,0.0,2.6,59,0.00,,,0.02,WUHU21636XXSP,2013-04-29 19:49:00,
2013-04-29 12:50:00,54.1,40.1,30.10,SSE,157,0.0,2.6,59,0.00,,,0.02,WUHU21636XXSP,2013-04-29 19:50:00,
2013-04-29 12:52:00,54.1,40.5,30.10,NNE,22,0.0,2.6,60,0.00,,,0.02,WUHU21636XXSP,2013-04-29 19:52:00,
2013-04-29 12:54:00,54.1,40.5,30.11,NE,45,1.7,2.6,60,0.00,,,0.02,WUHU21636XXSP,2013-04-29 19:54:00,
2013-04-29 12:55:00,54.1,40.5,30.11,NE,45,1.7,1.7,60,0.00,,,0.02,WUHU21636XXSP,2013-04-29 19:55:00,
2013-04-29 12:57:00,54.1,38.6,30.11,NNE,22,3.1,3.1,56,0.00,,,0.02,WUHU21636XXSP,2013-04-29 19:57:00,
2013-04-29 12:59:00,53.8,39.3,30.11,NNE,22,3.1,3.1,58,0.00,,,0.02,WUHU21636XXSP,2013-04-29 19:59:00,
2013-04-29 13:00:00,53.2,38.7,30.11,NNE,22,3.1,3.1,58,0.00,,,0.02,WUHU21636XXSP,2013-04-29 20:00:00,
2013-04-29 13:01:00,53.2,38.7,30.11,NNE,22,3.1,3.1,58,0.00,,,0.02,WUHU21636XXSP,2013-04-29 20:01:00,
2013-04-29 13:02:00,52.9,38.9,30.11,NE,45,0.0,3.1,59,0.00,,,0.02,WUHU21636XXSP,2013-04-29 20:02:00,
2013-04-29 13:04:00,52.7,38.7,30.11,ENE,67,1.5,3.1,59,0.00,,,0.02,WUHU21636XXSP,2013-04-29 20:04:00,
2013-04-29 13:05:00,52.7,38.7,30.11,ENE,67,1.5,3.1,59,0.00,,,0.02,WUHU21636XXSP,2013-04-29 20:05:00,
2013-04-29 13:06:00,52.7,38.7,30.10,ENE,67,1.5,3.1,59,0.00,,,0.02,WUHU21636XXSP,2013-04-29 20:06:00,
2013-04-29 13:07:00,52.3,38.4,30.11,ENE,61,3.1,7.1,59,0.00,,,0.02,WUHU21636XXSP,2013-04-29 20:07:00,
2013-04-29 13:09:00,51.8,38.3,30.11,ESE,111,2.0,7.1,60,0.00,,,0.02,WUHU21636XXSP,2013-04-29 20:09:00,
2013-04-29 13:10:00,51.8,38.3,30.11,ESE,108,1.3,7.1,60,0.00,,,0.02,WUHU21636XXSP,2013-04-29 20:10:00,
2013-04-29 13:11:00,51.4,38.4,30.11,East,90,0.4,7.1,61,0.00,,,0.02,WUHU21636XXSP,2013-04-29 20:11:00,
2013-04-29 13:12:00,51.4,38.4,30.11,East,90,0.4,7.1,61,0.00,,,0.02,WUHU21636XXSP,2013-04-29 20:12:00,
2013-04-29 13:14:00,51.1,38.6,30.11,North,0,0.0,7.1,62,0.00,,,0.02,WUHU21636XXSP,2013-04-29 20:14:00,
2013-04-29 13:15:00,51.1,38.6,30.11,North,0,0.0,7.1,62,0.00,,,0.02,WUHU21636XXSP,2013-04-29 20:15:00,
2013-04-29 13:16:00,50.5,38.4,30.11,East,90,2.2,6.0,63,0.00,,,0.02,WUHU21636XXSP,2013-04-29 20:16:00,
2013-04-29 13:17:00,50.5,38.4,30.11,East,90,2.2,2.4,63,0.00,,,0.02,WUHU21636XXSP,2013-04-29 20:17:00,
2013-04-29 13:18:00,50.4,38.3,30.11,East,90,2.0,2.4,63,0.00,,,0.02,WUHU21636XXSP,2013-04-29 20:18:00,
2013-04-29 13:20:00,49.8,38.2,30.11,East,90,2.2,2.2,64,0.00,,,0.02,WUHU21636XXSP,2013-04-29 20:20:00,
2013-04-29 13:22:00,49.8,38.2,30.11,East,90,2.2,2.2,64,0.00,,,0.02,WUHU21636XXSP,2013-04-29 20:22:00,
2013-04-29 13:23:00,49.6,38.4,30.11,ESE,112,2.4,2.4,65,0.00,,,0.02,WUHU21636XXSP,2013-04-29 20:23:00,
2013-04-29 13:25:00,49.1,38.3,30.11,East,85,2.3,2.4,66,0.00,,,0.02,WUHU21636XXSP,2013-04-29 20:25:00,
2013-04-29 13:26:00,48.7,39.1,30.11,ESE,112,4.0,4.0,69,0.00,,,0.02,WUHU21636XXSP,2013-04-29 20:26:00,
2013-04-29 13:27:00,48.7,39.1,30.11,ESE,112,4.0,4.0,69,0.00,,,0.02,WUHU21636XXSP,2013-04-29 20:27:00,
2013-04-29 13:28:00,48.7,39.1,30.11,ESE,112,4.0,4.0,69,0.00,,,0.02,WUHU21636XXSP,2013-04-29 20:28:00,
2013-04-29 13:30:00,48.6,39.4,30.11,East,90,0.0,4.0,70,0.00,,,0.02,WUHU21636XXSP,2013-04-29 20:30:00,
2013-04-29 13:31:00,48.7,39.8,30.11,East,99,5.3,8.7,71,0.00,,,0.02,WUHU21636XXSP,2013-04-29 20:31:00,
2013-04-29 13:32:00,48.7,39.5,30.11,East,101,5.1,8.7,70,0.00,,,0.02,WUHU21636XXSP,2013-04-29 20:32:00,
2013-04-29 13:33:00,48.7,39.5,30.11,ESE,112,2.0,8.7,70,0.00,,,0.02,WUHU21636XXSP,2013-04-29 20:33:00,
2013-04-29 13:35:00,48.7,39.5,30.11,SE,135,1.7,8.7,70,0.00,,,0.02,WUHU21636XXSP,2013-04-29 20:35:00,
2013-04-29 13:36:00,48.9,39.7,30.11,SE,135,1.7,8.7,70,0.00,,,0.02,WUHU21636XXSP,2013-04-29 20:36:00,
2013-04-29 13:37:00,48.9,39.7,30.11,SE,135,1.7,8.7,70,0.00,,,0.02,WUHU21636XXSP,2013-04-29 20:37:00,
2013-04-29 13:38:00,48.9,39.7,30.11,SE,135,1.7,8.7,70,0.00,,,0.02,WUHU21636XXSP,2013-04-29 20:38:00,
2013-04-29 13:41:00,48.7,39.1,30.11,ENE,67,1.7,8.7,69,0.00,,,0.02,WUHU21636XXSP,2013-04-29 20:41:00,
2013-04-29 13:42:00,48.7,39.1,30.11,ENE,67,1.7,1.7,69,0.00,,,0.02,WUHU21636XXSP,2013-04-29 20:42:00,
2013-04-29 13:43:00,48.6,39.0,30.11,ENE,67,1.7,1.7,69,0.00,,,0.02,WUHU21636XXSP,2013-04-29 20:43:00,
2013-04-29 13:46:00,48.6,39.0,30.12,ESE,106,5.2,8.7,69,0.00,,,0.02,WUHU21636XXSP,2013-04-29 20:46:00,
2013-04-29 13:47:00,48.6,39.0,30.12,East,101,4.3,8.7,69,0.00,,,0.02,WUHU21636XXSP,2013-04-29 20:47:00,
2013-04-29 13:48:00,48.6,38.6,30.12,ENE,61,3.3,10.0,68,0.00,,,0.02,WUHU21636XXSP,2013-04-29 20:48:00,
2013-04-29 13:51:00,48.7,38.7,30.11,SE,135,4.4,10.0,68,0.00,,,0.02,WUHU21636XXSP,2013-04-29 20:51:00,
2013-04-29 13:52:00,49.1,38.7,30.11,SE,133,4.3,10.0,67,0.00,,,0.02,WUHU21636XXSP,2013-04-29 20:52:00,
2013-04-29 13:53:00,49.1,38.7,30.11,ESE,123,3.9,10.0,67,0.00,,,0.02,WUHU21636XXSP,2013-04-29 20:53:00,
2013-04-29 13:56:00,49.6,38.4,30.11,ESE,112,0.6,10.0,65,0.00,,,0.02,WUHU21636XXSP,2013-04-29 20:56:00,
2013-04-29 13:57:00,49.6,38.4,30.11,ESE,112,0.6,10.0,65,0.00,,,0.02,WUHU21636XXSP,2013-04-29 20:57:00,
2013-04-29 13:58:00,49.6,38.4,30.11,ESE,112,0.6,4.4,65,0.00,,,0.02,WUHU21636XXSP,2013-04-29 20:58:00,
2013-04-29 14:01:00,50.5,38.0,30.11,NE,45,1.5,4.4,62,0.00,,,0.02,WUHU21636XXSP,2013-04-29 21:01:00,
2013-04-29 14:02:00,50.5,38.0,30.11,NE,45,1.5,3.5,62,0.00,,,0.02,WUHU21636XXSP,2013-04-29 21:02:00,
2013-04-29 14:03:00,50.9,38.4,30.11,ENE,67,1.7,3.5,62,0.00,,,0.02,WUHU21636XXSP,2013-04-29 21:03:00,
2013-04-29 14:04:00,50.9,38.4,30.11,ENE,67,1.7,1.7,62,0.00,,,0.02,WUHU21636XXSP,2013-04-29 21:04:00,
2013-04-29 14:07:00,51.4,38.0,30.11,ESE,112,0.0,1.7,60,0.00,,,0.02,WUHU21636XXSP,2013-04-29 21:07:00,
2013-04-29 14:08:00,51.4,38.0,30.11,ESE,112,0.0,1.7,60,0.00,,,0.02,WUHU21636XXSP,2013-04-29 21:08:00,
2013-04-29 14:09:00,51.4,38.0,30.11,ESE,112,0.0,1.7,60,0.00,,,0.02,WUHU21636XXSP,2013-04-29 21:09:00,
2013-04-29 14:12:00,51.6,38.1,30.11,East,82,2.3,3.1,60,0.00,,,0.02,WUHU21636XXSP,2013-04-29 21:12:00,
2013-04-29 14:13:00,51.6,38.1,30.11,ENE,67,1.5,3.1,60,0.00,,,0.02,WUHU21636XXSP,2013-04-29 21:13:00,
2013-04-29 14:14:00,52.0,37.6,30.10,ENE,67,4.2,4.2,58,0.00,,,0.02,WUHU21636XXSP,2013-04-29 21:14:00,
2013-04-29 14:17:00,52.0,36.7,30.11,SE,133,3.4,7.1,56,0.00,,,0.02,WUHU21636XXSP,2013-04-29 21:17:00,
2013-04-29 14:18:00,52.0,36.7,30.11,SE,135,0.6,7.1,56,0.00,,,0.02,WUHU21636XXSP,2013-04-29 21:18:00,
2013-04-29 14:19:00,52.0,36.2,30.11,ESE,112,2.9,7.1,55,0.00,,,0.02,WUHU21636XXSP,2013-04-29 21:19:00,
2013-04-29 14:22:00,52.0,36.7,30.11,East,98,2.8,7.1,56,0.00,,,0.02,WUHU21636XXSP,2013-04-29 21:22:00,
2013-04-29 14:23:00,52.0,36.2,30.11,East,90,1.3,7.1,55,0.00,,,0.02,WUHU21636XXSP,2013-04-29 21:23:00,
2013-04-29 14:24:00,52.0,36.2,30.11,East,90,1.3,7.1,55,0.00,,,0.02,WUHU21636XXSP,2013-04-29 21:24:00,
2013-04-29 14:27:00,52.2,37.3,30.10,NNE,22,3.1,6.7,57,0.00,,,0.02,WUHU21636XXSP,2013-04-29 21:27:00,
2013-04-29 14:28:00,52.5,38.5,30.11,NE,38,2.8,6.7,59,0.00,,,0.02,WUHU21636XXSP,2013-04-29 21:28:00,
2013-04-29 14:29:00,52.5,38.5,30.11,NE,42,2.7,6.7,59,0.00,,,0.02,WUHU21636XXSP,2013-04-29 21:29:00,
2013-04-29 14:32:00,52.9,37.5,30.10,East,90,4.4,4.4,56,0.00,,,0.02,WUHU21636XXSP,2013-04-29 21:32:00,
2013-04-29 14:34:00,52.9,37.5,30.10,East,90,4.4,4.4,56,0.00,,,0.02,WUHU21636XXSP,2013-04-29 21:34:00,
2013-04-29 14:35:00,52.9,38.0,30.10,East,90,4.4,4.4,57,0.00,,,0.02,WUHU21636XXSP,2013-04-29 21:35:00,
2013-04-29 14:37:00,53.2,36.8,30.10,SE,135,0.4,4.4,54,0.00,,,0.02,WUHU21636XXSP,2013-04-29 21:37:00,
2013-04-29 14:39:00,53.2,37.8,30.10,ESE,112,5.5,5.5,56,0.00,,,0.02,WUHU21636XXSP,2013-04-29 21:39:00,
2013-04-29 14:40:00,53.2,37.8,30.10,ESE,112,5.5,5.5,56,0.00,,,0.02,WUHU21636XXSP,2013-04-29 21:40:00,
2013-04-29 14:42:00,52.9,36.5,30.10,ESE,112,5.5,5.5,54,0.00,,,0.02,WUHU21636XXSP,2013-04-29 21:42:00,
2013-04-29 14:44:00,52.7,36.8,30.10,East,90,0.0,5.5,55,0.00,,,0.02,WUHU21636XXSP,2013-04-29 21:44:00,
2013-04-29 14:45:00,52.7,36.8,30.10,East,90,0.0,5.5,55,0.00,,,0.02,WUHU21636XXSP,2013-04-29 21:45:00,
2013-04-29 14:47:00,52.7,36.8,30.10,NNE,22,4.4,5.5,55,0.00,,,0.02,WUHU21636XXSP,2013-04-29 21:47:00,
2013-04-29 14:49:00,52.7,36.8,30.10,NE,45,0.0,5.5,55,0.00,,,0.02,WUHU21636XXSP,2013-04-29 21:49:00,
2013-04-29 14:50:00,52.7,36.3,30.10,East,90,5.8,9.3,54,0.00,,,0.02,WUHU21636XXSP,2013-04-29 21:50:00,
2013-04-29 14:53:00,52.9,37.0,30.11,NE,45,3.1,9.3,55,0.00,,,0.02,WUHU21636XXSP,2013-04-29 21:53:00,
2013-04-29 14:54:00,52.9,37.0,30.10,NE,45,3.1,9.3,55,0.00,,,0.02,WUHU21636XXSP,2013-04-29 21:54:00,
2013-04-29 14:55:00,52.7,36.8,30.10,NE,45,5.3,9.3,55,0.00,,,0.02,WUHU21636XXSP,2013-04-29 21:55:00,
2013-04-29 14:58:00,52.5,36.7,30.10,ENE,69,4.4,9.3,55,0.00,,,0.02,WUHU21636XXSP,2013-04-29 21:58:00,
2013-04-29 14:59:00,52.5,37.1,30.10,East,90,5.3,9.3,56,0.00,,,0.02,WUHU21636XXSP,2013-04-29 21:59:00,
2013-04-29 15:00:00,52.7,36.3,30.10,East,94,4.1,9.3,54,0.00,,,0.02,WUHU21636XXSP,2013-04-29 22:00:00,
2013-04-29 15:03:00,52.7,36.3,30.10,ESE,102,1.7,6.2,54,0.00,,,0.02,WUHU21636XXSP,2013-04-29 22:03:00,
2013-04-29 15:04:00,52.5,37.1,30.11,ENE,67,7.3,8.2,56,0.00,,,0.02,WUHU21636XXSP,2013-04-29 22:04:00,
2013-04-29 15:05:00,52.5,36.7,30.11,East,90,5.5,8.2,55,0.00,,,0.02,WUHU21636XXSP,2013-04-29 22:05:00,
2013-04-29 15:08:00,52.5,37.1,30.10,ESE,112,2.9,8.2,56,0.00,,,0.02,WUHU21636XXSP,2013-04-29 22:08:00,
2013-04-29 15:09:00,52.5,37.1,30.10,ESE,112,2.9,8.2,56,0.00,,,0.02,WUHU21636XXSP,2013-04-29 22:09:00,
2013-04-29 15:10:00,52.5,37.6,30.10,NNE,22,5.1,8.2,57,0.00,,,0.02,WUHU21636XXSP,2013-04-29 22:10:00,
2013-04-29 15:13:00,52.7,37.3,30.10,NNE,22,3.4,8.2,56,0.00,,,0.02,WUHU21636XXSP,2013-04-29 22:13:00,
2013-04-29 15:14:00,52.9,37.5,30.10,ESE,112,7.6,9.1,56,0.00,,,0.02,WUHU21636XXSP,2013-04-29 22:14:00,
2013-04-29 15:15:00,52.7,37.3,30.10,SE,135,5.8,9.1,56,0.00,,,0.02,WUHU21636XXSP,2013-04-29 22:15:00,
2013-04-29 15:18:00,52.5,36.7,30.10,ENE,67,1.5,9.3,55,0.00,,,0.02,WUHU21636XXSP,2013-04-29 22:18:00,
2013-04-29 15:20:00,52.3,37.0,30.10,East,90,3.1,9.3,56,0.00,,,0.02,WUHU21636XXSP,2013-04-29 22:20:00,
2013-04-29 15:21:00,52.3,37.0,30.10,East,90,3.1,9.3,56,0.00,,,0.02,WUHU21636XXSP,2013-04-29 22:21:00,
2013-04-29 15:24:00,52.7,37.8,30.10,ENE,67,2.2,9.3,57,0.00,,,0.02,WUHU21636XXSP,2013-04-29 22:24:00,
2013-04-29 15:25:00,52.7,37.3,30.10,ENE,67,2.2,9.3,56,0.00,,,0.02,WUHU21636XXSP,2013-04-29 22:25:00,
2013-04-29 15:26:00,52.7,37.3,30.10,ENE,67,2.2,9.3,56,0.00,,,0.02,WUHU21636XXSP,2013-04-29 22:26:00,
2013-04-29 15:30:00,52.5,36.7,30.10,NE,45,3.1,3.1,55,0.00,,,0.02,WUHU21636XXSP,2013-04-29 22:30:00,
2013-04-29 15:31:00,52.5,36.7,30.10,NE,45,3.1,3.1,55,0.00,,,0.02,WUHU21636XXSP,2013-04-29 22:31:00,
2013-04-29 15:35:00,52.5,37.1,30.11,NNE,22,0.4,3.1,56,0.00,,,0.02,WUHU21636XXSP,2013-04-29 22:35:00,
2013-04-29 15:36:00,52.5,37.1,30.11,ENE,67,0.0,3.1,56,0.00,,,0.02,WUHU21636XXSP,2013-04-29 22:36:00,
2013-04-29 15:37:00,52.7,37.3,30.10,ESE,112,1.5,3.1,56,0.00,,,0.02,WUHU21636XXSP,2013-04-29 22:37:00,
2013-04-29 15:40:00,52.9,36.5,30.10,ENE,67,2.6,2.6,54,0.00,,,0.02,WUHU21636XXSP,2013-04-29 22:40:00,
2013-04-29 15:41:00,52.5,36.2,30.10,ENE,75,2.2,2.6,54,0.00,,,0.02,WUHU21636XXSP,2013-04-29 22:41:00,
2013-04-29 15:42:00,52.5,36.2,30.10,East,100,1.5,2.6,54,0.00,,,0.02,WUHU21636XXSP,2013-04-29 22:42:00,
2013-04-29 15:45:00,52.3,36.0,30.10,ESE,112,4.0,4.0,54,0.00,,,0.02,WUHU21636XXSP,2013-04-29 22:45:00,
2013-04-29 15:46:00,52.3,36.0,30.10,ESE,112,4.0,4.0,54,0.00,,,0.02,WUHU21636XXSP,2013-04-29 22:46:00,
2013-04-29 15:47:00,52.2,36.4,30.10,ESE,112,4.0,4.0,55,0.00,,,0.02,WUHU21636XXSP,2013-04-29 22:47:00,
2013-04-29 15:50:00,52.3,36.5,30.10,ENE,67,0.0,4.0,55,0.00,,,0.02,WUHU21636XXSP,2013-04-29 22:50:00,
2013-04-29 15:51:00,52.3,36.0,30.10,NNE,22,0.0,4.0,54,0.00,,,0.02,WUHU21636XXSP,2013-04-29 22:51:00,
2013-04-29 15:52:00,52.3,36.0,30.10,NNE,22,0.0,4.0,54,0.00,,,0.02,WUHU21636XXSP,2013-04-29 22:52:00,
2013-04-29 15:56:00,52.5,36.2,30.10,ESE,112,4.4,4.4,54,0.00,,,0.02,WUHU21636XXSP,2013-04-29 22:56:00,
2013-04-29 15:57:00,52.3,35.5,30.10,ESE,112,4.2,4.4,53,0.00,,,0.02,WUHU21636XXSP,2013-04-29 22:57:00,
2013-04-29 15:58:00,52.3,35.5,30.10,ESE,112,3.8,4.4,53,0.00,,,0.02,WUHU21636XXSP,2013-04-29 22:58:00,
2013-04-29 16:01:00,52.3,36.0,30.10,ESE,112,1.3,4.4,54,0.00,,,0.02,WUHU21636XXSP,2013-04-29 23:01:00,
2013-04-29 16:02:00,52.5,35.7,30.10,NE,45,2.6,4.4,53,0.00,,,0.02,WUHU21636XXSP,2013-04-29 23:02:00,
2013-04-29 16:03:00,52.5,35.7,30.10,NE,45,2.6,4.4,53,0.00,,,0.02,WUHU21636XXSP,2013-04-29 23:03:00,
2013-04-29 16:06:00,52.3,35.5,30.10,ESE,112,4.4,4.4,53,0.00,,,0.02,WUHU21636XXSP,2013-04-29 23:06:00,
2013-04-29 16:07:00,52.3,36.0,30.10,East,99,3.2,4.4,54,0.00,,,0.02,WUHU21636XXSP,2013-04-29 23:07:00,
2013-04-29 16:08:00,52.3,36.0,30.10,ENE,57,1.9,4.4,54,0.00,,,0.02,WUHU21636XXSP,2013-04-29 23:08:00,
2013-04-29 16:11:00,52.2,35.9,30.10,East,90,2.6,4.4,54,0.00,,,0.02,WUHU21636XXSP,2013-04-29 23:11:00,
2013-04-29 16:12:00,52.2,35.9,30.10,East,90,2.6,4.4,54,0.00,,,0.02,WUHU21636XXSP,2013-04-29 23:12:00,
2013-04-29 16:13:00,52.2,35.9,30.10,NE,45,0.0,4.4,54,0.00,,,0.02,WUHU21636XXSP,2013-04-29 23:13:00,
2013-04-29 16:14:00,52.2,35.9,30.10,NE,45,0.0,4.4,54,0.00,,,0.02,WUHU21636XXSP,2013-04-29 23:14:00,
2013-04-29 16:16:00,52.2,36.4,30.10,SE,135,4.6,4.6,55,0.00,,,0.02,WUHU21636XXSP,2013-04-29 23:16:00,
2013-04-29 16:17:00,52.2,36.4,30.10,SE,132,4.5,4.6,55,0.00,,,0.02,WUHU21636XXSP,2013-04-29 23:17:00,
2013-04-29 16:18:00,52.2,36.4,30.10,East,83,3.6,4.6,55,0.00,,,0.02,WUHU21636XXSP,2013-04-29 23:18:00,
2013-04-29 16:19:00,52.2,36.4,30.10,NNE,22,2.9,4.6,55,0.00,,,0.02,WUHU21636XXSP,2013-04-29 23:19:00,
2013-04-29 16:21:00,52.3,37.0,30.10,NE,45,0.0,4.6,56,0.00,,,0.02,WUHU21636XXSP,2013-04-29 23:21:00,
2013-04-29 16:22:00,52.3,37.0,30.10,NE,45,0.0,4.6,56,0.00,,,0.02,WUHU21636XXSP,2013-04-29 23:22:00,
2013-04-29 16:23:00,52.3,37.0,30.10,NE,45,0.0,4.6,56,0.00,,,0.02,WUHU21636XXSP,2013-04-29 23:23:00,
2013-04-29 16:24:00,52.3,37.0,30.10,ESE,112,0.0,4.6,56,0.00,,,0.02,WUHU21636XXSP,2013-04-29 23:24:00,
2013-04-29 16:26:00,52.3,36.5,30.10,SE,135,6.2,11.4,55,0.00,,,0.02,WUHU21636XXSP,2013-04-29 23:26:00,
2013-04-29 16:27:00,52.3,36.0,30.10,ESE,120,5.0,11.4,54,0.00,,,0.02,WUHU21636XXSP,2013-04-29 23:27:00,
2013-04-29 16:28:00,52.3,36.5,30.10,ESE,118,4.1,11.4,55,0.00,,,0.02,WUHU21636XXSP,2013-04-29 23:28:00,
2013-04-29 16:29:00,52.3,36.5,30.10,ESE,102,2.5,11.4,55,0.00,,,0.02,WUHU21636XXSP,2013-04-29 23:29:00,
2013-04-29 16:32:00,52.3,36.5,30.10,ESE,108,6.6,11.4,55,0.00,,,0.02,WUHU21636XXSP,2013-04-29 23:32:00,
2013-04-29 16:33:00,52.3,37.0,30.10,SE,127,4.3,11.4,56,0.00,,,0.02,WUHU21636XXSP,2013-04-29 23:33:00,
2013-04-29 16:34:00,52.3,37.0,30.10,ENE,68,2.5,11.4,56,0.00,,,0.02,WUHU21636XXSP,2013-04-29 23:34:00,
2013-04-29 16:37:00,52.3,37.0,30.10,ESE,112,3.1,11.4,56,0.00,,,0.02,WUHU21636XXSP,2013-04-29 23:37:00,
2013-04-29 16:38:00,52.5,37.1,30.10,East,90,3.3,11.4,56,0.00,,,0.02,WUHU21636XXSP,2013-04-29 23:38:00,
2013-04-29 16:39:00,52.5,37.1,30.10,East,90,3.3,11.4,56,0.00,,,0.02,WUHU21636XXSP,2013-04-29 23:39:00,
2013-04-29 16:42:00,52.2,36.4,30.10,NNE,22,4.2,6.4,55,0.00,,,0.02,WUHU21636XXSP,2013-04-29 23:42:00,
2013-04-29 16:43:00,52.2,36.4,30.10,NNE,22,4.2,4.2,55,0.00,,,0.02,WUHU21636XXSP,2013-04-29 23:43:00,
2013-04-29 16:44:00,52.2,37.3,30.10,NNE,22,4.2,4.2,57,0.00,,,0.02,WUHU21636XXSP,2013-04-29 23:44:00,
2013-04-29 16:47:00,52.2,37.3,30.10,NE,45,0.0,4.2,57,0.00,,,0.02,WUHU21636XXSP,2013-04-29 23:47:00,
2013-04-29 16:48:00,52.0,36.7,30.10,ESE,112,0.0,4.2,56,0.00,,,0.02,WUHU21636XXSP,2013-04-29 23:48:00,
2013-04-29 16:49:00,52.0,36.7,30.10,ESE,112,0.0,4.2,56,0.00,,,0.02,WUHU21636XXSP,2013-04-29 23:49:00,
2013-04-29 16:50:00,52.2,37.3,30.10,East,90,4.4,4.4,57,0.00,,,0.02,WUHU21636XXSP,2013-04-29 23:50:00,
2013-04-29 16:52:00,52.2,37.3,30.10,East,90,4.4,4.4,57,0.00,,,0.02,WUHU21636XXSP,2013-04-29 23:52:00,
2013-04-29 16:53:00,52.0,36.7,30.10,East,83,4.0,5.8,56,0.00,,,0.02,WUHU21636XXSP,2013-04-29 23:53:00,
2013-04-29 16:54:00,52.0,36.7,30.10,ENE,76,3.8,5.8,56,0.00,,,0.02,WUHU21636XXSP,2013-04-29 23:54:00,
2013-04-29 16:55:00,52.0,37.1,30.10,NE,46,2.5,5.8,57,0.00,,,0.02,WUHU21636XXSP,2013-04-29 23:55:00,
2013-04-29 16:57:00,52.2,36.9,30.10,ENE,67,0.8,5.8,56,0.00,,,0.02,WUHU21636XXSP,2013-04-29 23:57:00,
2013-04-29 16:59:00,52.2,36.9,30.10,ESE,112,1.7,5.8,56,0.00,,,0.02,WUHU21636XXSP,2013-04-29 23:59:00,
2013-04-29 17:00:00,52.2,36.9,30.10,ESE,112,1.7,5.8,56,0.00,,,0.02,WUHU21636XXSP,2013-04-30 00:00:00,
2013-04-29 17:02:00,52.2,36.9,30.10,ESE,112,1.7,5.8,56,0.00,,,0.02,WUHU21636XXSP,2013-04-30 00:02:00,
2013-04-29 17:04:00,52.0,37.1,30.10,ENE,67,2.2,2.9,57,0.00,,,0.02,WUHU21636XXSP,2013-04-30 00:04:00,
2013-04-29 17:05:00,52.0,37.1,30.10,ENE,67,2.2,2.2,57,0.00,,,0.02,WUHU21636XXSP,2013-04-30 00:05:00,
2013-04-29 17:07:00,52.2,36.9,30.10,ESE,112,0.0,2.2,56,0.00,,,0.02,WUHU21636XXSP,2013-04-30 00:07:00,
2013-04-29 17:09:00,52.2,36.9,30.10,ESE,112,0.0,2.2,56,0.00,,,0.02,WUHU21636XXSP,2013-04-30 00:09:00,
2013-04-29 17:10:00,52.2,36.9,30.10,ESE,112,0.0,2.2,56,0.00,,,0.02,WUHU21636XXSP,2013-04-30 00:10:00,
2013-04-29 17:12:00,52.3,37.4,30.10,NE,45,3.6,3.8,57,0.00,,,0.02,WUHU21636XXSP,2013-04-30 00:12:00,
2013-04-29 17:14:00,52.3,37.0,30.10,NE,52,2.9,3.8,56,0.00,,,0.02,WUHU21636XXSP,2013-04-30 00:14:00,
2013-04-29 17:15:00,52.3,37.0,30.10,ENE,63,2.7,3.8,56,0.00,,,0.02,WUHU21636XXSP,2013-04-30 00:15:00,
2013-04-29 17:17:00,52.3,37.0,30.10,NE,45,2.1,3.8,56,0.00,,,0.02,WUHU21636XXSP,2013-04-30 00:17:00,
2013-04-29 17:20:00,52.3,37.4,30.10,ENE,57,4.4,10.0,57,0.00,,,0.02,WUHU21636XXSP,2013-04-30 00:20:00,
2013-04-29 17:23:00,52.3,37.4,30.10,East,80,0.8,10.0,57,0.00,,,0.02,WUHU21636XXSP,2013-04-30 00:23:00,
2013-04-29 17:25:00,52.3,37.0,30.10,East,90,0.5,10.0,56,0.00,,,0.02,WUHU21636XXSP,2013-04-30 00:25:00,
2013-04-29 17:26:00,52.3,37.0,30.10,ESE,112,0.4,10.0,56,0.00,,,0.02,WUHU21636XXSP,2013-04-30 00:26:00,
2013-04-29 17:29:00,52.2,37.3,30.10,East,90,3.1,8.9,57,0.00,,,0.02,WUHU21636XXSP,2013-04-30 00:29:00,
2013-04-29 17:30:00,52.2,37.3,30.10,East,90,3.1,8.9,57,0.00,,,0.02,WUHU21636XXSP,2013-04-30 00:30:00,
2013-04-29 17:31:00,52.2,37.3,30.10,East,90,3.1,8.9,57,0.00,,,0.02,WUHU21636XXSP,2013-04-30 00:31:00,
2013-04-29 17:34:00,52.2,36.9,30.10,ENE,74,4.2,10.0,56,0.00,,,0.02,WUHU21636XXSP,2013-04-30 00:34:00,
2013-04-29 17:35:00,52.2,36.9,30.10,East,90,2.9,10.0,56,0.00,,,0.02,WUHU21636XXSP,2013-04-30 00:35:00,
2013-04-29 17:36:00,52.0,36.7,30.10,East,92,3.9,10.0,56,0.00,,,0.02,WUHU21636XXSP,2013-04-30 00:36:00,
2013-04-29 17:37:00,52.0,36.7,30.10,East,94,3.9,10.0,56,0.00,,,0.02,WUHU21636XXSP,2013-04-30 00:37:00,
2013-04-29 17:39:00,52.0,37.1,30.10,ESE,112,2.6,10.0,57,0.00,,,0.02,WUHU21636XXSP,2013-04-30 00:39:00,
2013-04-29 17:40:00,52.0,37.1,30.10,ESE,112,2.6,10.0,57,0.00,,,0.02,WUHU21636XXSP,2013-04-30 00:40:00,
2013-04-29 17:41:00,51.8,37.0,30.10,ESE,112,2.9,10.0,57,0.00,,,0.02,WUHU21636XXSP,2013-04-30 00:41:00,
2013-04-29 17:42:00,51.8,37.0,30.10,ESE,112,2.9,10.0,57,0.00,,,0.02,WUHU21636XXSP,2013-04-30 00:42:00,
2013-04-29 17:44:00,52.0,36.7,30.10,ENE,75,1.5,7.3,56,0.00,,,0.02,WUHU21636XXSP,2013-04-30 00:44:00,
2013-04-29 17:45:00,51.6,36.8,30.10,ESE,112,1.5,6.9,57,0.00,,,0.02,WUHU21636XXSP,2013-04-30 00:45:00,
2013-04-29 17:46:00,51.6,36.8,30.10,ESE,112,1.5,2.9,57,0.00,,,0.02,WUHU21636XXSP,2013-04-30 00:46:00,
2013-04-29 17:47:00,51.6,36.8,30.10,ESE,112,1.5,2.9,57,0.00,,,0.02,WUHU21636XXSP,2013-04-30 00:47:00,
2013-04-29 17:49:00,51.6,36.3,30.10,ENE,67,1.5,2.9,56,0.00,,,0.02,WUHU21636XXSP,2013-04-30 00:49:00,
2013-04-29 17:50:00,51.6,36.3,30.10,ENE,67,1.5,2.9,56,0.00,,,0.02,WUHU21636XXSP,2013-04-30 00:50:00,
2013-04-29 17:51:00,51.6,36.3,30.10,ESE,112,5.1,5.1,56,0.00,,,0.02,WUHU21636XXSP,2013-04-30 00:51:00,
2013-04-29 17:52:00,51.6,36.3,30.10,ESE,112,5.1,5.1,56,0.00,,,0.02,WUHU21636XXSP,2013-04-30 00:52:00,
2013-04-29 17:55:00,51.6,36.8,30.10,ESE,112,5.1,5.1,57,0.00,,,0.02,WUHU21636XXSP,2013-04-30 00:55:00,
2013-04-29 17:57:00,51.6,36.8,30.10,NE,45,0.0,5.1,57,0.00,,,0.02,WUHU21636XXSP,2013-04-30 00:57:00,
2013-04-29 18:00:00,51.4,36.6,30.10,ENE,70,3.6,9.1,57,0.00,,,0.02,WUHU21636XXSP,2013-04-30 01:00:00,
2013-04-29 18:01:00,51.4,36.6,30.10,NE,49,3.2,9.1,57,0.00,,,0.02,WUHU21636XXSP,2013-04-30 01:01:00,
2013-04-29 18:02:00,51.4,36.6,30.10,NE,45,3.1,9.1,57,0.00,,,0.02,WUHU21636XXSP,2013-04-30 01:02:00,
2013-04-29 18:05:00,51.4,36.6,30.10,ESE,112,2.2,9.1,57,0.00,,,0.02,WUHU21636XXSP,2013-04-30 01:05:00,
2013-04-29 18:06:00,51.6,36.8,30.10,ESE,112,2.2,9.1,57,0.00,,,0.02,WUHU21636XXSP,2013-04-30 01:06:00,
2013-04-29 18:07:00,51.6,36.8,30.10,ESE,112,2.2,9.1,57,0.00,,,0.02,WUHU21636XXSP,2013-04-30 01:07:00,
2013-04-29 18:08:00,51.4,36.6,30.10,NE,45,0.0,9.1,57,0.00,,,0.02,WUHU21636XXSP,2013-04-30 01:08:00,
2013-04-29 18:10:00,51.6,36.3,30.10,ENE,67,2.6,3.1,56,0.00,,,0.02,WUHU21636XXSP,2013-04-30 01:10:00,
2013-04-29 18:11:00,51.6,36.3,30.10,ENE,67,2.6,2.6,56,0.00,,,0.02,WUHU21636XXSP,2013-04-30 01:11:00,
2013-04-29 18:12:00,51.6,36.3,30.10,ENE,67,2.6,2.6,56,0.00,,,0.02,WUHU21636XXSP,2013-04-30 01:12:00,
2013-04-29 18:13:00,51.4,36.1,30.10,East,91,2.5,2.6,56,0.00,,,0.02,WUHU21636XXSP,2013-04-30 01:13:00,
2013-04-29 18:16:00,51.4,36.6,30.10,ESE,112,2.4,2.6,57,0.00,,,0.02,WUHU21636XXSP,2013-04-30 01:16:00,
2013-04-29 18:17:00,51.6,36.3,30.10,NE,45,1.1,2.6,56,0.00,,,0.02,WUHU21636XXSP,2013-04-30 01:17:00,
2013-04-29 18:18:00,51.6,36.3,30.10,NE,45,1.1,2.6,56,0.00,,,0.02,WUHU21636XXSP,2013-04-30 01:18:00,
2013-04-29 18:21:00,51.4,36.1,30.10,NE,45,0.8,2.6,56,0.00,,,0.02,WUHU21636XXSP,2013-04-30 01:21:00,
2013-04-29 18:22:00,51.4,36.1,30.10,NE,45,0.8,2.6,56,0.00,,,0.02,WUHU21636XXSP,2013-04-30 01:22:00,
2013-04-29 18:23:00,51.4,36.1,30.10,SE,135,0.8,2.4,56,0.00,,,0.02,WUHU21636XXSP,2013-04-30 01:23:00,
2013-04-29 18:26:00,51.4,36.6,30.10,SE,135,0.8,1.1,57,0.00,,,0.02,WUHU21636XXSP,2013-04-30 01:26:00,
2013-04-29 18:27:00,51.4,36.6,30.10,SE,135,0.8,1.1,57,0.00,,,0.02,WUHU21636XXSP,2013-04-30 01:27:00,
2013-04-29 18:28:00,51.4,36.6,30.10,NE,45,0.0,1.1,57,0.00,,,0.02,WUHU21636XXSP,2013-04-30 01:28:00,
2013-04-29 18:31:00,51.3,37.9,30.10,ESE,112,0.0,0.8,60,0.00,,,0.02,WUHU21636XXSP,2013-04-30 01:31:00,
2013-04-29 18:32:00,51.1,39.0,30.10,East,90,0.0,0.8,63,0.00,,,0.02,WUHU21636XXSP,2013-04-30 01:32:00,
2013-04-29 18:33:00,51.1,39.0,30.10,East,90,0.0,0.8,63,0.00,,,0.02,WUHU21636XXSP,2013-04-30 01:33:00,
2013-04-29 18:36:00,50.4,38.7,30.10,East,90,2.0,2.0,64,0.00,,,0.02,WUHU21636XXSP,2013-04-30 01:36:00,
2013-04-29 18:37:00,50.4,38.7,30.10,East,90,2.0,2.0,64,0.00,,,0.02,WUHU21636XXSP,2013-04-30 01:37:00,
2013-04-29 18:38:00,50.0,39.6,30.10,ESE,112,0.0,2.0,67,0.00,,,0.02,WUHU21636XXSP,2013-04-30 01:38:00,
2013-04-29 18:42:00,49.6,39.6,30.10,ESE,112,0.0,2.0,68,0.00,,,0.02,WUHU21636XXSP,2013-04-30 01:42:00,
2013-04-29 18:43:00,49.6,38.8,30.10,East,90,0.0,2.0,66,0.00,,,0.02,WUHU21636XXSP,2013-04-30 01:43:00,
2013-04-29 18:44:00,49.6,38.8,30.10,East,90,0.0,2.0,66,0.00,,,0.02,WUHU21636XXSP,2013-04-30 01:44:00,
2013-04-29 18:47:00,49.5,38.7,30.10,NNE,22,0.0,0.0,66,0.00,,,0.02,WUHU21636XXSP,2013-04-30 01:47:00,
2013-04-29 18:48:00,49.5,38.7,30.10,NNE,22,0.0,0.0,66,0.00,,,0.02,WUHU21636XXSP,2013-04-30 01:48:00,
2013-04-29 18:49:00,49.3,38.5,30.10,NNE,22,0.0,0.0,66,0.00,,,0.02,WUHU21636XXSP,2013-04-30 01:49:00,
2013-04-29 18:50:00,49.3,38.5,30.10,NNE,22,0.0,0.0,66,0.00,,,0.02,WUHU21636XXSP,2013-04-30 01:50:00,
2013-04-29 18:52:00,49.3,38.9,30.10,NNE,22,0.0,0.0,67,0.00,,,0.02,WUHU21636XXSP,2013-04-30 01:52:00,
2013-04-29 18:53:00,49.1,38.7,30.10,NNE,22,0.0,0.0,67,0.00,,,0.02,WUHU21636XXSP,2013-04-30 01:53:00,
2013-04-29 18:54:00,49.1,38.7,30.10,NNE,22,0.0,0.0,67,0.00,,,0.02,WUHU21636XXSP,2013-04-30 01:54:00,
2013-04-29 18:55:00,49.1,38.7,30.10,East,90,0.0,0.0,67,0.00,,,0.02,WUHU21636XXSP,2013-04-30 01:55:00,
2013-04-29 18:57:00,49.1,38.7,30.10,East,90,0.0,0.0,67,0.00,,,0.02,WUHU21636XXSP,2013-04-30 01:57:00,
2013-04-29 18:58:00,49.1,38.3,30.10,NE,45,0.0,0.0,66,0.00,,,0.02,WUHU21636XXSP,2013-04-30 01:58:00,
2013-04-29 18:59:00,49.1,38.3,30.10,NE,45,0.0,0.0,66,0.00,,,0.02,WUHU21636XXSP,2013-04-30 01:59:00,
2013-04-29 19:00:00,49.1,38.7,30.11,ESE,112,0.0,0.0,67,0.00,,,0.02,WUHU21636XXSP,2013-04-30 02:00:00,
2013-04-29 19:02:00,48.9,38.5,30.11,ESE,112,0.0,0.0,67,0.00,,,0.02,WUHU21636XXSP,2013-04-30 02:02:00,
2013-04-29 19:03:00,48.9,38.5,30.10,ESE,112,0.0,0.0,67,0.00,,,0.02,WUHU21636XXSP,2013-04-30 02:03:00,
2013-04-29 19:04:00,48.9,38.5,30.10,ESE,112,0.0,0.0,67,0.00,,,0.02,WUHU21636XXSP,2013-04-30 02:04:00,
2013-04-29 19:05:00,48.9,38.9,30.10,ESE,112,0.0,0.0,68,0.00,,,0.02,WUHU21636XXSP,2013-04-30 02:05:00,
2013-04-29 19:07:00,48.9,38.5,30.10,NE,45,0.0,0.0,67,0.00,,,0.02,WUHU21636XXSP,2013-04-30 02:07:00,
2013-04-29 19:08:00,48.9,38.5,30.10,NE,45,0.0,0.0,67,0.00,,,0.02,WUHU21636XXSP,2013-04-30 02:08:00,
2013-04-29 19:09:00,48.9,38.1,30.10,NE,45,0.0,0.0,66,0.00,,,0.02,WUHU21636XXSP,2013-04-30 02:09:00,
2013-04-29 19:11:00,48.9,38.1,30.10,NE,45,0.0,0.0,66,0.00,,,0.02,WUHU21636XXSP,2013-04-30 02:11:00,
2013-04-29 19:12:00,48.9,38.1,30.10,NE,45,0.0,0.0,66,0.00,,,0.02,WUHU21636XXSP,2013-04-30 02:12:00,
2013-04-29 19:13:00,49.1,38.3,30.10,NE,45,0.0,0.0,66,0.00,,,0.02,WUHU21636XXSP,2013-04-30 02:13:00,
2013-04-29 19:14:00,49.1,38.3,30.10,NE,45,0.0,0.0,66,0.00,,,0.02,WUHU21636XXSP,2013-04-30 02:14:00,
2013-04-29 19:17:00,48.9,38.1,30.11,NE,45,3.1,3.1,66,0.00,,,0.02,WUHU21636XXSP,2013-04-30 02:17:00,
2013-04-29 19:18:00,48.9,38.1,30.11,NE,45,3.1,3.1,66,0.00,,,0.02,WUHU21636XXSP,2013-04-30 02:18:00,
2013-04-29 19:19:00,49.1,38.3,30.11,East,90,0.0,3.1,66,0.00,,,0.02,WUHU21636XXSP,2013-04-30 02:19:00,
2013-04-29 19:22:00,48.9,38.5,30.11,East,90,0.0,3.1,67,0.00,,,0.02,WUHU21636XXSP,2013-04-30 02:22:00,
2013-04-29 19:24:00,48.9,38.5,30.11,ESE,112,0.0,3.1,67,0.00,,,0.02,WUHU21636XXSP,2013-04-30 02:24:00,
2013-04-29 19:27:00,49.1,38.7,30.11,ESE,112,0.0,0.0,67,0.00,,,0.02,WUHU21636XXSP,2013-04-30 02:27:00,
2013-04-29 19:29:00,48.9,38.5,30.11,East,90,0.0,0.0,67,0.00,,,0.02,WUHU21636XXSP,2013-04-30 02:29:00,
2013-04-29 19:32:00,48.9,38.5,30.11,ENE,67,0.0,0.0,67,0.00,,,0.02,WUHU21636XXSP,2013-04-30 02:32:00,
2013-04-29 19:33:00,48.9,38.5,30.11,ENE,67,0.0,0.0,67,0.00,,,0.02,WUHU21636XXSP,2013-04-30 02:33:00,
2013-04-29 19:34:00,48.9,38.9,30.11,ESE,112,0.0,0.0,68,0.00,,,0.02,WUHU21636XXSP,2013-04-30 02:34:00,
2013-04-29 19:37:00,48.6,38.6,30.11,ESE,112,0.0,0.0,68,0.00,,,0.02,WUHU21636XXSP,2013-04-30 02:37:00,
2013-04-29 19:39:00,48.6,38.2,30.11,ESE,112,0.0,0.0,67,0.00,,,0.02,WUHU21636XXSP,2013-04-30 02:39:00,
2013-04-29 19:40:00,48.6,38.2,30.11,ESE,112,0.0,0.0,67,0.00,,,0.02,WUHU21636XXSP,2013-04-30 02:40:00,
2013-04-29 19:43:00,48.4,38.0,30.11,ESE,112,0.0,0.0,67,0.00,,,0.02,WUHU21636XXSP,2013-04-30 02:43:00,
2013-04-29 19:44:00,48.4,38.0,30.11,ESE,112,0.0,0.0,67,0.00,,,0.02,WUHU21636XXSP,2013-04-30 02:44:00,
2013-04-29 19:45:00,48.2,38.2,30.11,ESE,112,0.0,0.0,68,0.00,,,0.02,WUHU21636XXSP,2013-04-30 02:45:00,
2013-04-29 19:48:00,48.4,38.0,30.11,ESE,112,0.0,0.0,67,0.00,,,0.02,WUHU21636XXSP,2013-04-30 02:48:00,
2013-04-29 19:49:00,48.0,38.0,30.11,ESE,112,0.0,0.0,68,0.00,,,0.02,WUHU21636XXSP,2013-04-30 02:49:00,
2013-04-29 19:50:00,48.0,38.0,30.11,ESE,112,0.0,0.0,68,0.00,,,0.02,WUHU21636XXSP,2013-04-30 02:50:00,
2013-04-29 19:53:00,48.0,38.0,30.11,SE,135,0.0,0.0,68,0.00,,,0.02,WUHU21636XXSP,2013-04-30 02:53:00,
2013-04-29 19:54:00,48.0,38.0,30.11,SE,135,0.0,0.0,68,0.00,,,0.02,WUHU21636XXSP,2013-04-30 02:54:00,
2013-04-29 19:55:00,48.0,38.0,30.11,SE,135,0.0,0.0,68,0.00,,,0.02,WUHU21636XXSP,2013-04-30 02:55:00,
2013-04-29 19:56:00,47.8,37.5,30.11,SE,135,0.0,0.0,67,0.00,,,0.02,WUHU21636XXSP,2013-04-30 02:56:00,
2013-04-29 19:59:00,47.8,37.8,30.11,ESE,112,0.0,0.0,68,0.00,,,0.02,WUHU21636XXSP,2013-04-30 02:59:00,
2013-04-29 20:00:00,47.8,38.2,30.11,ESE,112,0.0,0.0,69,0.00,,,0.02,WUHU21636XXSP,2013-04-30 03:00:00,
2013-04-29 20:01:00,47.8,38.2,30.11,ESE,112,0.0,0.0,69,0.00,,,0.02,WUHU21636XXSP,2013-04-30 03:01:00,
2013-04-29 20:02:00,47.8,37.8,30.11,East,90,0.0,0.0,68,0.00,,,0.02,WUHU21636XXSP,2013-04-30 03:02:00,
2013-04-29 20:04:00,47.5,37.6,30.11,East,90,0.0,0.0,68,0.00,,,0.02,WUHU21636XXSP,2013-04-30 03:04:00,
2013-04-29 20:05:00,47.5,37.6,30.11,East,90,0.0,0.0,68,0.00,,,0.02,WUHU21636XXSP,2013-04-30 03:05:00,
2013-04-29 20:06:00,47.5,37.6,30.11,East,90,0.0,0.0,68,0.00,,,0.02,WUHU21636XXSP,2013-04-30 03:06:00,
2013-04-29 20:07:00,47.5,37.6,30.11,East,90,0.0,0.0,68,0.00,,,0.02,WUHU21636XXSP,2013-04-30 03:07:00,
2013-04-29 20:09:00,47.5,37.9,30.11,East,90,0.0,0.0,69,0.00,,,0.02,WUHU21636XXSP,2013-04-30 03:09:00,
2013-04-29 20:10:00,47.5,37.9,30.11,East,90,0.0,0.0,69,0.00,,,0.02,WUHU21636XXSP,2013-04-30 03:10:00,
2013-04-29 20:11:00,47.3,38.1,30.11,East,90,0.0,0.0,70,0.00,,,0.02,WUHU21636XXSP,2013-04-30 03:11:00,
2013-04-29 20:12:00,47.3,38.1,30.11,East,90,0.0,0.0,70,0.00,,,0.02,WUHU21636XXSP,2013-04-30 03:12:00,
2013-04-29 20:14:00,47.1,37.6,30.11,East,90,0.0,0.0,69,0.00,,,0.02,WUHU21636XXSP,2013-04-30 03:14:00,
2013-04-29 20:15:00,47.1,37.9,30.11,East,90,0.0,0.0,70,0.00,,,0.02,WUHU21636XXSP,2013-04-30 03:15:00,
2013-04-29 20:16:00,47.1,37.9,30.11,East,90,0.0,0.0,70,0.00,,,0.02,WUHU21636XXSP,2013-04-30 03:16:00,
2013-04-29 20:17:00,46.9,38.1,30.11,East,90,0.0,0.0,71,0.00,,,0.02,WUHU21636XXSP,2013-04-30 03:17:00,
2013-04-29 20:20:00,46.9,38.1,30.12,East,90,0.0,0.0,71,0.00,,,0.02,WUHU21636XXSP,2013-04-30 03:20:00,
2013-04-29 20:21:00,46.9,38.1,30.12,East,90,0.0,0.0,71,0.00,,,0.02,WUHU21636XXSP,2013-04-30 03:21:00,
2013-04-29 20:23:00,46.8,37.6,30.12,ESE,112,0.0,0.0,70,0.00,,,0.02,WUHU21636XXSP,2013-04-30 03:23:00,
2013-04-29 20:25:00,46.6,37.8,30.12,ESE,112,0.0,0.0,71,0.00,,,0.02,WUHU21636XXSP,2013-04-30 03:25:00,
2013-04-29 20:26:00,46.6,37.8,30.12,ESE,112,0.0,0.0,71,0.00,,,0.02,WUHU21636XXSP,2013-04-30 03:26:00,
2013-04-29 20:27:00,46.6,37.8,30.12,ESE,112,0.0,0.0,71,0.00,,,0.02,WUHU21636XXSP,2013-04-30 03:27:00,
2013-04-29 20:28:00,46.6,37.8,30.12,ESE,112,0.0,0.0,71,0.00,,,0.02,WUHU21636XXSP,2013-04-30 03:28:00,
2013-04-29 20:30:00,46.2,37.8,30.12,ESE,112,0.0,0.0,72,0.00,,,0.02,WUHU21636XXSP,2013-04-30 03:30:00,
2013-04-29 20:31:00,46.2,37.8,30.12,ESE,112,0.0,0.0,72,0.00,,,0.02,WUHU21636XXSP,2013-04-30 03:31:00,
2013-04-29 20:32:00,46.2,37.8,30.12,ESE,112,0.0,0.0,72,0.00,,,0.02,WUHU21636XXSP,2013-04-30 03:32:00,
2013-04-29 20:33:00,46.2,37.8,30.12,ESE,112,0.0,0.0,72,0.00,,,0.02,WUHU21636XXSP,2013-04-30 03:33:00,
2013-04-29 20:35:00,46.2,37.8,30.12,ESE,112,0.0,0.0,72,0.00,,,0.02,WUHU21636XXSP,2013-04-30 03:35:00,
2013-04-29 20:37:00,46.0,37.6,30.12,ESE,112,0.0,0.0,72,0.00,,,0.02,WUHU21636XXSP,2013-04-30 03:37:00,
2013-04-29 20:38:00,46.0,38.0,30.12,ESE,112,0.0,0.0,73,0.00,,,0.02,WUHU21636XXSP,2013-04-30 03:38:00,
2013-04-29 20:40:00,46.0,38.0,30.12,ESE,112,0.0,0.0,73,0.00,,,0.02,WUHU21636XXSP,2013-04-30 03:40:00,
2013-04-29 20:41:00,45.9,37.9,30.12,ESE,112,0.0,0.0,73,0.00,,,0.02,WUHU21636XXSP,2013-04-30 03:41:00,
2013-04-29 20:42:00,45.9,37.9,30.12,ESE,112,0.0,0.0,73,0.00,,,0.02,WUHU21636XXSP,2013-04-30 03:42:00,
2013-04-29 20:44:00,45.7,38.0,30.12,ESE,112,0.0,0.0,74,0.00,,,0.02,WUHU21636XXSP,2013-04-30 03:44:00,
2013-04-29 20:45:00,45.5,38.2,30.12,ESE,112,0.0,0.0,75,0.00,,,0.02,WUHU21636XXSP,2013-04-30 03:45:00,
2013-04-29 20:46:00,45.5,38.2,30.12,ESE,112,0.0,0.0,75,0.00,,,0.02,WUHU21636XXSP,2013-04-30 03:46:00,
2013-04-29 20:47:00,45.3,38.0,30.12,ESE,112,0.0,0.0,75,0.00,,,0.02,WUHU21636XXSP,2013-04-30 03:47:00,
2013-04-29 20:49:00,45.3,38.0,30.12,ESE,112,0.0,0.0,75,0.00,,,0.02,WUHU21636XXSP,2013-04-30 03:49:00,
2013-04-29 20:51:00,45.3,38.3,30.12,ESE,112,0.0,0.0,76,0.00,,,0.02,WUHU21636XXSP,2013-04-30 03:51:00,
2013-04-29 20:53:00,45.1,38.1,30.12,ESE,112,0.0,0.0,76,0.00,,,0.02,WUHU21636XXSP,2013-04-30 03:53:00,
2013-04-29 20:54:00,45.0,37.7,30.12,ESE,112,0.0,0.0,75,0.00,,,0.02,WUHU21636XXSP,2013-04-30 03:54:00,
2013-04-29 20:56:00,45.0,37.7,30.12,ESE,112,0.0,0.0,75,0.00,,,0.02,WUHU21636XXSP,2013-04-30 03:56:00,
2013-04-29 20:58:00,45.0,37.7,30.12,ESE,112,0.0,0.0,75,0.00,,,0.02,WUHU21636XXSP,2013-04-30 03:58:00,
2013-04-29 20:59:00,44.8,37.8,30.13,East,90,0.0,0.0,76,0.00,,,0.02,WUHU21636XXSP,2013-04-30 03:59:00,
2013-04-29 21:01:00,44.8,37.5,30.13,ESE,112,0.0,0.0,75,0.00,,,0.02,WUHU21636XXSP,2013-04-30 04:01:00,
2013-04-29 21:06:00,44.6,38.0,30.13,ESE,112,0.0,0.0,77,0.00,,,0.02,WUHU21636XXSP,2013-04-30 04:06:00,
2013-04-29 21:11:00,44.2,37.6,30.13,ESE,112,0.0,0.0,77,0.00,,,0.02,WUHU21636XXSP,2013-04-30 04:11:00,
2013-04-29 21:12:00,44.2,37.6,30.13,ESE,112,0.0,0.0,77,0.00,,,0.02,WUHU21636XXSP,2013-04-30 04:12:00,
2013-04-29 21:16:00,44.2,37.2,30.13,ESE,112,0.0,0.0,76,0.00,,,0.02,WUHU21636XXSP,2013-04-30 04:16:00,
2013-04-29 21:17:00,44.2,37.2,30.13,ESE,112,0.0,0.0,76,0.00,,,0.02,WUHU21636XXSP,2013-04-30 04:17:00,
2013-04-29 21:21:00,44.2,37.6,30.13,ESE,112,0.0,0.0,77,0.00,,,0.02,WUHU21636XXSP,2013-04-30 04:21:00,
2013-04-29 21:22:00,44.2,37.6,30.13,ESE,112,0.0,0.0,77,0.00,,,0.02,WUHU21636XXSP,2013-04-30 04:22:00,
2013-04-29 21:26:00,44.1,37.8,30.13,ESE,112,0.0,0.0,78,0.00,,,0.02,WUHU21636XXSP,2013-04-30 04:26:00,
2013-04-29 21:27:00,44.1,37.8,30.13,ESE,112,0.0,0.0,78,0.00,,,0.02,WUHU21636XXSP,2013-04-30 04:27:00,
2013-04-29 21:31:00,43.9,37.6,30.14,East,90,0.0,0.0,78,0.00,,,0.02,WUHU21636XXSP,2013-04-30 04:31:00,
2013-04-29 21:32:00,43.9,37.6,30.14,East,90,0.0,0.0,78,0.00,,,0.02,WUHU21636XXSP,2013-04-30 04:32:00,
2013-04-29 21:33:00,43.9,37.6,30.14,East,90,0.0,0.0,78,0.00,,,0.02,WUHU21636XXSP,2013-04-30 04:33:00,
2013-04-29 21:36:00,43.9,37.6,30.14,ENE,67,0.0,0.0,78,0.00,,,0.02,WUHU21636XXSP,2013-04-30 04:36:00,
2013-04-29 21:37:00,43.9,37.6,30.14,ESE,112,0.0,0.0,78,0.00,,,0.02,WUHU21636XXSP,2013-04-30 04:37:00,
2013-04-29 21:38:00,43.9,37.6,30.14,ESE,112,0.0,0.0,78,0.00,,,0.02,WUHU21636XXSP,2013-04-30 04:38:00,
2013-04-29 21:39:00,43.9,37.6,30.14,ESE,112,0.0,0.0,78,0.00,,,0.02,WUHU21636XXSP,2013-04-30 04:39:00,
2013-04-29 21:42:00,43.9,37.6,30.14,ESE,112,0.0,0.0,78,0.00,,,0.02,WUHU21636XXSP,2013-04-30 04:42:00,
2013-04-29 21:43:00,44.2,37.9,30.14,SE,135,0.0,0.0,78,0.00,,,0.02,WUHU21636XXSP,2013-04-30 04:43:00,
2013-04-29 21:44:00,44.2,37.9,30.14,SE,135,0.0,0.0,78,0.00,,,0.02,WUHU21636XXSP,2013-04-30 04:44:00,
2013-04-29 21:47:00,44.2,37.6,30.14,ESE,112,0.0,0.0,77,0.00,,,0.02,WUHU21636XXSP,2013-04-30 04:47:00,
2013-04-29 21:48:00,44.2,37.6,30.14,SSE,157,0.0,0.0,77,0.00,,,0.02,WUHU21636XXSP,2013-04-30 04:48:00,
2013-04-29 21:49:00,44.2,37.6,30.14,SSE,157,0.0,0.0,77,0.00,,,0.02,WUHU21636XXSP,2013-04-30 04:49:00,
2013-04-29 21:52:00,44.2,37.2,30.14,East,89,4.2,6.7,76,0.00,,,0.02,WUHU21636XXSP,2013-04-30 04:52:00,
2013-04-29 21:53:00,44.2,37.2,30.14,East,84,3.1,6.7,76,0.00,,,0.02,WUHU21636XXSP,2013-04-30 04:53:00,
2013-04-29 21:54:00,44.2,37.2,30.14,ENE,77,2.4,6.7,76,0.00,,,0.02,WUHU21636XXSP,2013-04-30 04:54:00,
2013-04-29 21:57:00,44.2,37.6,30.14,ESE,112,0.0,6.7,77,0.00,,,0.02,WUHU21636XXSP,2013-04-30 04:57:00,
2013-04-29 21:58:00,44.2,37.6,30.14,ESE,112,0.0,6.7,77,0.00,,,0.02,WUHU21636XXSP,2013-04-30 04:58:00,
2013-04-29 21:59:00,44.4,37.8,30.14,SE,135,3.5,6.7,77,0.00,,,0.02,WUHU21636XXSP,2013-04-30 04:59:00,
2013-04-29 22:02:00,44.2,37.2,30.14,SE,135,3.5,3.5,76,0.00,,,0.02,WUHU21636XXSP,2013-04-30 05:02:00,
2013-04-29 22:03:00,44.2,37.6,30.14,ESE,112,0.0,3.5,77,0.00,,,0.02,WUHU21636XXSP,2013-04-30 05:03:00,
2013-04-29 22:04:00,44.2,37.6,30.14,ESE,112,0.0,3.5,77,0.00,,,0.02,WUHU21636XXSP,2013-04-30 05:04:00,
2013-04-29 22:07:00,44.2,37.2,30.14,East,90,0.0,7.1,76,0.00,,,0.02,WUHU21636XXSP,2013-04-30 05:07:00,
2013-04-29 22:08:00,44.2,36.9,30.14,ESE,112,0.0,7.1,75,0.00,,,0.02,WUHU21636XXSP,2013-04-30 05:08:00,
2013-04-29 22:09:00,44.2,36.9,30.14,ESE,112,0.0,7.1,75,0.00,,,0.02,WUHU21636XXSP,2013-04-30 05:09:00,
2013-04-29 22:12:00,44.1,36.8,30.14,NE,45,0.0,7.1,75,0.00,,,0.02,WUHU21636XXSP,2013-04-30 05:12:00,
2013-04-29 22:13:00,44.1,36.8,30.14,NE,45,0.0,7.1,75,0.00,,,0.02,WUHU21636XXSP,2013-04-30 05:13:00,
2013-04-29 22:14:00,44.1,36.8,30.14,NE,45,0.0,7.1,75,0.00,,,0.02,WUHU21636XXSP,2013-04-30 05:14:00,
2013-04-29 22:15:00,43.9,36.6,30.14,NNE,22,1.1,7.1,75,0.00,,,0.02,WUHU21636XXSP,2013-04-30 05:15:00,
2013-04-29 22:17:00,43.9,36.3,30.15,NNE,22,1.1,1.1,74,0.00,,,0.02,WUHU21636XXSP,2013-04-30 05:17:00,
2013-04-29 22:19:00,43.9,36.6,30.14,NE,45,0.0,1.1,75,0.00,,,0.02,WUHU21636XXSP,2013-04-30 05:19:00,
2013-04-29 22:20:00,43.9,36.6,30.14,NE,45,0.0,1.1,75,0.00,,,0.02,WUHU21636XXSP,2013-04-30 05:20:00,
2013-04-29 22:22:00,43.9,36.6,30.15,ENE,67,0.0,1.1,75,0.00,,,0.02,WUHU21636XXSP,2013-04-30 05:22:00,
2013-04-29 22:24:00,43.9,36.6,30.15,ESE,112,0.0,1.1,75,0.00,,,0.02,WUHU21636XXSP,2013-04-30 05:24:00,
2013-04-29 22:25:00,43.9,36.6,30.15,ESE,112,0.0,1.1,75,0.00,,,0.02,WUHU21636XXSP,2013-04-30 05:25:00,
2013-04-29 22:28:00,43.7,36.8,30.15,SE,135,0.0,0.0,76,0.00,,,0.02,WUHU21636XXSP,2013-04-30 05:28:00,
2013-04-29 22:29:00,43.7,36.8,30.15,East,90,0.0,0.0,76,0.00,,,0.02,WUHU21636XXSP,2013-04-30 05:29:00,
2013-04-29 22:30:00,43.7,36.8,30.15,East,90,0.0,0.0,76,0.00,,,0.02,WUHU21636XXSP,2013-04-30 05:30:00,
2013-04-29 22:33:00,43.7,36.8,30.15,ESE,112,0.0,0.0,76,0.00,,,0.02,WUHU21636XXSP,2013-04-30 05:33:00,
2013-04-29 22:34:00,43.7,36.8,30.15,ENE,67,0.0,0.0,76,0.00,,,0.02,WUHU21636XXSP,2013-04-30 05:34:00,
2013-04-29 22:35:00,43.7,36.8,30.15,ENE,67,0.0,0.0,76,0.00,,,0.02,WUHU21636XXSP,2013-04-30 05:35:00,
2013-04-29 22:38:00,43.5,36.6,30.15,ESE,112,0.0,0.0,76,0.00,,,0.02,WUHU21636XXSP,2013-04-30 05:38:00,
2013-04-29 22:40:00,43.5,36.6,30.15,ESE,112,0.0,0.0,76,0.00,,,0.02,WUHU21636XXSP,2013-04-30 05:40:00,
2013-04-29 22:41:00,43.5,36.9,30.15,ENE,67,0.0,0.0,77,0.00,,,0.02,WUHU21636XXSP,2013-04-30 05:41:00,
2013-04-29 22:44:00,43.5,36.9,30.15,East,90,0.0,0.0,77,0.00,,,0.02,WUHU21636XXSP,2013-04-30 05:44:00,
2013-04-29 22:45:00,43.3,36.7,30.15,East,90,0.0,0.0,77,0.00,,,0.02,WUHU21636XXSP,2013-04-30 05:45:00,
2013-04-29 22:46:00,43.3,36.7,30.15,East,90,0.0,0.0,77,0.00,,,0.02,WUHU21636XXSP,2013-04-30 05:46:00,
2013-04-29 22:49:00,43.3,36.7,30.15,NE,45,0.0,0.0,77,0.00,,,0.02,WUHU21636XXSP,2013-04-30 05:49:00,
2013-04-29 22:50:00,43.3,36.7,30.15,NE,45,0.0,0.0,77,0.00,,,0.02,WUHU21636XXSP,2013-04-30 05:50:00,
2013-04-29 22:51:00,43.3,37.0,30.15,ENE,67,0.0,0.0,78,0.00,,,0.02,WUHU21636XXSP,2013-04-30 05:51:00,
2013-04-29 22:54:00,43.3,37.0,30.15,NE,45,0.0,0.0,78,0.00,,,0.02,WUHU21636XXSP,2013-04-30 05:54:00,
2013-04-29 22:55:00,43.2,36.9,30.15,ENE,67,0.0,0.0,78,0.00,,,0.02,WUHU21636XXSP,2013-04-30 05:55:00,
2013-04-29 22:56:00,43.2,36.9,30.15,ENE,67,0.0,0.0,78,0.00,,,0.02,WUHU21636XXSP,2013-04-30 05:56:00,
2013-04-29 22:59:00,43.2,36.9,30.16,ENE,67,0.0,0.0,78,0.00,,,0.02,WUHU21636XXSP,2013-04-30 05:59:00,
2013-04-29 23:00:00,43.2,36.9,30.15,ENE,67,0.0,0.0,78,0.00,,,0.02,WUHU21636XXSP,2013-04-30 06:00:00,
2013-04-29 23:01:00,43.2,36.9,30.15,ENE,67,0.0,0.0,78,0.00,,,0.02,WUHU21636XXSP,2013-04-30 06:01:00,
2013-04-29 23:02:00,43.2,37.3,30.15,ESE,112,0.0,0.0,79,0.00,,,0.02,WUHU21636XXSP,2013-04-30 06:02:00,
2013-04-29 23:05:00,43.0,37.1,30.15,NE,45,0.0,0.0,79,0.00,,,0.02,WUHU21636XXSP,2013-04-30 06:05:00,
2013-04-29 23:06:00,43.0,37.1,30.15,NE,45,0.0,0.0,79,0.00,,,0.02,WUHU21636XXSP,2013-04-30 06:06:00,
2013-04-29 23:07:00,43.0,37.1,30.15,NE,45,0.0,0.0,79,0.00,,,0.02,WUHU21636XXSP,2013-04-30 06:07:00,
2013-04-29 23:10:00,43.0,37.1,30.15,East,90,0.0,0.0,79,0.00,,,0.02,WUHU21636XXSP,2013-04-30 06:10:00,
2013-04-29 23:11:00,43.0,37.1,30.16,ENE,67,0.0,0.0,79,0.00,,,0.02,WUHU21636XXSP,2013-04-30 06:11:00,
2013-04-29 23:12:00,43.0,37.1,30.15,ENE,67,0.0,0.0,79,0.00,,,0.02,WUHU21636XXSP,2013-04-30 06:12:00,
2013-04-29 23:15:00,43.0,37.1,30.16,SE,135,0.0,0.0,79,0.00,,,0.02,WUHU21636XXSP,2013-04-30 06:15:00,
2013-04-29 23:16:00,43.0,37.1,30.16,SE,135,0.0,0.0,79,0.00,,,0.02,WUHU21636XXSP,2013-04-30 06:16:00,
2013-04-29 23:17:00,43.0,37.1,30.16,ENE,67,0.0,0.0,79,0.00,,,0.02,WUHU21636XXSP,2013-04-30 06:17:00,
2013-04-29 23:20:00,43.0,37.1,30.16,East,90,0.0,0.0,79,0.00,,,0.02,WUHU21636XXSP,2013-04-30 06:20:00,
2013-04-29 23:21:00,43.0,37.1,30.16,SE,135,0.0,0.0,79,0.00,,,0.02,WUHU21636XXSP,2013-04-30 06:21:00,
2013-04-29 23:22:00,43.0,37.1,30.16,SE,135,0.0,0.0,79,0.00,,,0.02,WUHU21636XXSP,2013-04-30 06:22:00,
2013-04-29 23:25:00,43.0,37.1,30.16,ENE,67,0.0,0.0,79,0.00,,,0.02,WUHU21636XXSP,2013-04-30 06:25:00,
2013-04-29 23:26:00,43.0,37.1,30.16,SE,135,0.0,0.0,79,0.00,,,0.02,WUHU21636XXSP,2013-04-30 06:26:00,
2013-04-29 23:27:00,43.0,37.1,30.16,SE,135,0.0,0.0,79,0.00,,,0.02,WUHU21636XXSP,2013-04-30 06:27:00,
2013-04-29 23:28:00,43.0,37.1,30.16,SSE,157,0.0,0.0,79,0.00,,,0.02,WUHU21636XXSP,2013-04-30 06:28:00,
2013-04-29 23:30:00,42.8,36.9,30.16,ENE,67,0.0,0.0,79,0.00,,,0.02,WUHU21636XXSP,2013-04-30 06:30:00,
2013-04-29 23:31:00,42.8,36.9,30.16,ENE,67,0.0,0.0,79,0.00,,,0.02,WUHU21636XXSP,2013-04-30 06:31:00,
2013-04-29 23:32:00,43.0,36.7,30.16,SE,135,0.0,0.0,78,0.00,,,0.02,WUHU21636XXSP,2013-04-30 06:32:00,
2013-04-29 23:33:00,43.0,36.7,30.16,SE,135,0.0,0.0,78,0.00,,,0.02,WUHU21636XXSP,2013-04-30 06:33:00,
2013-04-29 23:35:00,43.0,37.1,30.16,SE,135,0.0,0.0,79,0.00,,,0.02,WUHU21636XXSP,2013-04-30 06:35:00,
2013-04-29 23:36:00,42.8,36.9,30.17,East,90,0.0,0.0,79,0.00,,,0.02,WUHU21636XXSP,2013-04-30 06:36:00,
2013-04-29 23:37:00,42.8,36.9,30.17,East,90,0.0,0.0,79,0.00,,,0.02,WUHU21636XXSP,2013-04-30 06:37:00,
2013-04-29 23:38:00,42.8,36.9,30.17,East,90,0.0,0.0,79,0.00,,,0.02,WUHU21636XXSP,2013-04-30 06:38:00,
2013-04-29 23:40:00,42.8,36.9,30.17,NE,45,0.0,0.0,79,0.00,,,0.02,WUHU21636XXSP,2013-04-30 06:40:00,
2013-04-29 23:41:00,42.8,36.5,30.17,NE,45,0.0,0.0,78,0.00,,,0.02,WUHU21636XXSP,2013-04-30 06:41:00,
2013-04-29 23:43:00,42.8,36.5,30.17,ESE,112,0.0,0.0,78,0.00,,,0.02,WUHU21636XXSP,2013-04-30 06:43:00,
2013-04-29 23:45:00,42.8,36.5,30.17,NE,45,0.0,0.0,78,0.00,,,0.02,WUHU21636XXSP,2013-04-30 06:45:00,
2013-04-29 23:46:00,42.8,36.5,30.17,NE,45,0.0,0.0,78,0.00,,,0.02,WUHU21636XXSP,2013-04-30 06:46:00,
2013-04-29 23:48:00,42.8,36.9,30.17,NE,45,0.0,0.0,79,0.00,,,0.02,WUHU21636XXSP,2013-04-30 06:48:00,
2013-04-29 23:50:00,43.0,36.7,30.17,NE,45,0.0,0.0,78,0.00,,,0.02,WUHU21636XXSP,2013-04-30 06:50:00,
2013-04-29 23:52:00,43.0,36.7,30.17,NE,45,0.0,0.0,78,0.00,,,0.02,WUHU21636XXSP,2013-04-30 06:52:00,
2013-04-29 23:53:00,43.0,36.7,30.17,NE,45,0.0,0.0,78,0.00,,,0.02,WUHU21636XXSP,2013-04-30 06:53:00,
2013-04-29 23:55:00,43.0,37.1,30.17,ESE,112,0.0,0.0,79,0.00,,,0.02,WUHU21636XXSP,2013-04-30 06:55:00,
2013-04-29 23:57:00,43.0,36.7,30.17,SE,135,1.3,1.3,78,0.00,,,0.02,WUHU21636XXSP,2013-04-30 06:57:00,
2013-04-29 23:58:00,43.0,36.7,30.17,SE,135,1.3,1.3,78,0.00,,,0.02,WUHU21636XXSP,2013-04-30 06:58:00,
2013-04-29 23:59:00,43.0,36.7,30.17,SE,135,1.3,1.3,78,0.00,,,0.02,WUHU21636XXSP,2013-04-30 06:59:00,